GFSWCAN_sfc_thetae_000.txt.gz
Theta_e
307 307 307 307 307 307 307 307 307 307 307 307 308 308 308 309 311 310 308 315 307 302 304 305 306 303 305 309 304 309 309 310 311 308 306 306 306 308 309 314 309 311 309 307 310 306 304 321 318 312 325 327 324 325
306 306 306 306 307 307 307 307 307 307 307 308 308 308 308 309 311 310 306 312 312 305 305 309 308 310 308 308 306 308 309 316 314 311 311 311 307 309 312 303 315 308 312 313 314 310 320 324 324 326 326 328 325 325
306 306 306 306 307 307 307 307 307 307 307 308 308 308 308 308 310 310 306 309 309 305 306 306 305 311 312 310 311 303 312 313 316 316 313 314 311 315 308 310 313 317 319 315 313 314 315 321 321 323 323 323 322 323
306 306 306 306 306 306 306 307 307 307 307 307 308 308 308 308 310 311 306 309 308 305 300 304 308 306 311 309 310 310 311 312 312 312 311 311 310 316 311 312 309 315 315 312 316 314 320 320 320 321 322 323 323 324
306 306 306 305 306 306 306 306 306 306 307 307 308 308 308 308 310 310 309 310 310 304 301 303 309 308 309 310 308 310 309 310 308 305 306 307 312 312 313 312 309 315 315 312 309 317 319 318 319 320 319 318 321 323
306 306 305 305 305 305 306 306 306 306 307 307 307 307 307 308 310 307 304 310 312 310 302 300 309 309 309 309 307 309 310 309 306 306 306 308 313 310 305 304 311 315 319 319 315 317 317 318 319 320 317 317 318 318
306 306 306 306 306 305 306 306 306 306 307 307 307 307 307 308 308 302 300 306 307 307 303 300 301 307 308 309 308 307 308 307 306 305 304 305 306 307 303 299 308 310 314 314 314 315 312 312 311 315 316 317 318 318
306 306 306 306 306 306 306 306 306 306 307 307 307 307 307 308 307 304 308 308 307 304 305 299 300 303 308 304 304 309 306 306 305 305 307 304 306 305 299 306 307 309 311 310 310 311 311 313 314 314 315 315 314 314
305 305 306 306 306 306 306 305 305 306 306 307 306 307 307 306 303 304 308 309 308 305 300 300 297 298 308 306 308 307 308 301 307 301 302 304 302 299 304 307 307 309 310 309 311 312 313 312 313 315 315 315 314 315
305 306 306 306 306 306 306 305 305 305 306 306 304 302 298 305 310 309 306 304 302 303 302 298 304 299 303 303 301 304 305 302 300 304 305 300 300 307 307 309 312 313 313 313 311 311 313 313 313 313 314 315 316 316
306 306 306 305 305 306 306 306 305 306 306 302 300 300 309 307 305 303 298 298 299 297 300 300 302 300 306 300 302 304 301 302 296 301 302 300 302 309 314 315 316 316 315 314 314 313 313 313 312 312 312 313 314 317
305 305 306 306 306 306 307 306 305 305 305 305 305 310 308 303 300 295 295 298 297 295 300 299 300 304 305 307 303 304 299 300 294 305 301 297 310 314 315 314 315 315 315 314 314 313 313 313 313 312 312 312 313 318
305 305 305 306 306 306 306 306 306 306 307 308 302 299 300 299 288 289 288 293 294 300 301 303 300 303 305 304 302 302 296 296 304 298 297 305 312 312 313 314 314 316 315 315 313 313 313 313 314 313 314 317 317 319
305 306 306 306 307 307 307 306 306 305 302 297 293 287 293 291 293 294 295 297 301 303 302 304 301 302 304 301 302 296 301 302 296 294 297 304 308 310 312 313 313 313 314 313 313 314 314 314 315 315 316 319 319 319
304 305 306 306 306 306 307 307 306 309 302 296 296 287 292 296 299 300 303 302 303 305 303 302 303 303 300 299 301 299 296 293 296 298 303 306 310 311 312 313 313 314 315 314 315 315 315 314 316 315 318 323 320 323
305 304 305 306 306 307 306 305 306 307 303 297 296 294 297 296 297 298 299 300 304 304 305 304 299 297 297 298 295 294 294 294 299 304 307 309 310 312 312 314 315 315 315 315 317 318 318 318 317 318 321 321 322 323
304 303 306 306 307 306 306 305 305 300 298 295 295 299 301 301 298 299 301 302 306 302 298 302 295 294 300 295 294 298 299 301 304 306 309 312 312 312 313 313 314 313 313 315 316 317 315 318 317 318 319 320 322 322
304 306 307 306 306 304 307 306 302 297 293 296 296 300 300 301 300 300 302 304 303 302 304 300 302 296 294 293 296 301 303 307 309 309 310 313 316 316 313 313 313 313 314 316 316 316 317 315 316 316 320 321 321 321
305 306 306 306 307 306 301 301 303 295 296 298 299 301 301 301 305 306 305 306 307 308 307 303 298 297 298 304 302 304 305 307 307 309 309 314 316 317 317 316 315 316 314 313 313 312 312 313 313 316 316 321 316 316
306 305 305 305 306 304 297 301 305 299 297 301 301 300 300 300 302 303 305 305 304 301 300 298 298 301 302 304 307 307 308 311 311 307 308 310 312 317 316 314 311 317 312 315 312 306 312 312 313 314 313 313 314 314
303 305 305 305 305 307 304 302 300 300 303 300 304 303 302 302 300 299 299 303 300 298 297 301 303 306 309 309 310 311 315 315 313 313 312 311 312 312 312 313 314 312 310 310 309 309 304 310 311 313 313 312 313 314
305 306 306 305 301 301 299 304 301 301 299 299 300 303 301 299 298 301 306 301 299 301 303 303 304 307 308 311 313 315 316 315 317 315 306 308 310 308 311 311 312 310 310 310 311 310 310 311 312 311 310 311 310 312
305 304 301 299 294 291 293 301 296 297 292 294 299 296 297 298 299 304 298 300 300 303 305 306 308 311 310 314 316 314 317 318 316 317 312 313 312 312 312 312 312 311 310 309 310 308 309 305 309 311 311 310 310 310
304 298 292 291 291 288 293 292 295 293 294 293 292 288 291 295 297 292 288 294 301 311 312 312 313 310 311 313 314 314 316 314 313 313 314 312 311 311 313 312 312 312 312 311 310 309 309 309 305 309 310 310 309 309
293 292 289 285 289 288 290 291 291 289 287 290 287 289 291 295 292 293 294 302 307 308 310 311 313 313 310 309 311 313 318 313 310 309 313 312 310 309 309 310 311 311 312 312 310 310 310 310 309 309 308 308 308 308
290 300 295 298 292 296 297 296 293 297 300 297 299 304 302 299 297 294 301 307 309 309 310 311 310 309 309 312 309 310 310 312 311 309 311 312 311 309 308 308 308 309 313 312 310 309 309 309 309 309 309 308 302 306
298 303 310 314 311 308 306 308 308 304 301 300 302 301 300 295 295 301 308 310 309 310 312 312 311 309 309 310 312 314 314 314 314 312 314 313 312 313 311 308 308 307 310 311 311 310 309 309 309 309 309 309 309 310
308 306 302 305 305 306 302 302 301 301 302 304 303 299 297 297 298 306 310 313 313 314 313 313 314 313 312 312 313 312 312 312 313 312 311 311 311 311 310 307 307 298 306 307 306 306 306 305 306 306 307 307 308 310
306 308 307 304 305 304 304 302 302 304 307 305 301 300 302 307 310 310 312 313 314 312 310 309 311 313 312 313 313 312 311 310 307 303 302 302 303 304 306 305 306 305 305 305 300 300 304 303 304 304 305 305 307 309
305 309 305 304 303 301 305 307 306 308 309 309 309 308 308 310 313 315 313 313 312 310 310 311 311 310 308 308 307 308 309 309 307 304 301 300 300 303 304 304 303 303 303 303 303 303 299 301 301 304 304 305 305 305
310 308 305 305 304 307 309 310 310 310 309 308 309 307 306 309 311 314 313 313 312 312 310 309 309 309 307 306 305 304 303 306 307 307 304 303 302 302 301 302 302 302 302 302 302 301 301 300 300 300 301 302 301 300
308 307 306 302 304 310 312 309 309 308 308 306 307 309 309 309 306 310 314 313 311 309 306 309 307 306 307 307 307 306 298 305 305 305 303 301 300 301 301 301 302 302 302 301 301 300 299 298 297 298 300 299 299 298
309 309 309 309 307 306 309 309 308 307 308 306 306 308 307 307 305 310 315 315 312 311 311 310 308 308 308 307 306 305 301 305 301 293 293 292 292 295 299 302 302 302 300 300 299 299 298 297 296 297 298 297 296 297

GFSWCAN_sfc_thetae_003.txt.gz
Theta_e
306 306 306 306 307 307 307 307 307 307 307 307 308 308 309 308 309 309 306 310 306 299 300 303 304 299 297 298 299 302 304 310 307 303 301 301 300 303 303 306 304 305 303 298 302 298 296 317 318 311 314 318 320 320
306 306 306 306 306 306 307 307 307 307 307 307 308 308 308 308 309 310 303 308 310 303 301 306 306 307 306 304 299 300 301 306 310 305 307 307 302 303 305 301 310 304 309 309 308 307 316 318 313 318 319 316 317 317
306 306 306 306 306 306 306 307 307 307 307 307 307 308 308 308 308 309 305 307 306 301 301 302 302 308 309 308 306 298 307 308 306 308 307 308 307 309 304 304 307 313 314 309 308 312 313 318 316 316 318 319 320 321
306 306 306 306 306 306 306 306 307 307 306 306 307 307 308 308 308 308 304 307 305 301 296 300 307 306 311 306 307 306 305 309 308 307 303 307 305 310 306 309 309 310 313 308 311 316 316 317 318 318 318 320 321 322
306 306 306 306 306 305 305 306 306 306 306 306 307 307 308 308 309 308 307 307 308 301 295 298 305 307 306 309 308 307 306 306 305 302 302 301 308 307 308 308 305 312 309 308 306 314 314 314 318 317 315 315 315 315
306 305 306 306 306 305 305 305 306 306 306 307 307 307 308 308 309 304 303 308 308 306 298 295 307 304 306 307 306 306 307 307 305 302 303 305 307 304 302 300 302 313 315 314 312 317 316 316 318 314 312 314 315 312
306 305 305 305 306 306 306 305 306 306 306 307 307 307 307 308 305 300 299 305 308 307 299 297 299 305 307 307 305 304 306 304 304 302 301 301 303 304 300 296 303 306 310 308 309 311 308 310 307 312 312 314 315 314
306 306 306 306 306 306 306 306 306 306 306 307 307 307 308 308 306 301 306 307 307 301 301 296 297 301 305 300 301 307 303 303 304 302 304 300 303 301 295 303 305 308 309 309 309 311 310 310 310 311 312 314 313 312
306 305 305 306 306 306 305 305 305 305 305 306 307 307 305 303 302 306 311 311 309 303 296 299 295 296 304 303 307 304 307 300 305 298 299 301 299 296 301 303 305 309 308 309 311 312 312 312 312 312 312 312 310 311
305 305 305 306 306 306 306 305 304 305 305 306 303 300 296 304 312 310 304 301 300 302 300 296 301 297 300 301 299 301 303 299 297 300 303 297 296 307 310 311 311 311 311 310 307 306 307 306 308 309 309 309 309 308
306 306 306 306 306 306 306 306 306 306 305 300 300 298 307 310 304 303 299 297 299 297 299 299 299 297 304 298 300 303 299 300 294 299 299 299 302 308 312 311 312 312 311 310 310 309 309 308 308 308 308 309 309 309
305 305 306 306 306 307 307 306 306 304 304 302 301 306 308 302 300 295 294 297 296 293 299 296 299 302 304 307 302 302 298 299 294 303 299 298 306 310 311 312 312 313 313 312 313 312 312 312 311 310 310 310 310 312
305 305 306 307 307 307 307 306 306 306 306 306 300 298 298 298 287 288 287 291 293 300 300 301 297 301 305 304 302 301 297 294 302 295 297 303 308 310 310 311 312 313 313 313 313 312 313 312 313 313 312 314 313 313
305 305 306 307 307 307 307 307 307 305 302 296 292 285 291 291 292 293 295 297 301 302 302 303 300 301 303 299 301 297 300 300 295 293 296 303 307 309 310 312 312 311 313 313 313 313 314 314 313 314 314 316 314 317
306 306 307 306 307 307 307 307 306 307 300 294 295 287 291 296 298 300 301 301 303 304 302 302 302 302 299 298 300 298 296 293 295 296 301 306 309 311 310 312 312 312 313 313 313 314 316 315 315 314 315 317 318 314
306 306 305 306 307 307 307 306 305 305 302 297 296 293 297 295 295 298 299 300 304 304 305 303 300 298 296 298 296 295 293 293 297 302 305 309 311 311 311 313 314 312 312 313 315 315 314 315 314 313 314 314 316 318
304 302 306 307 307 306 306 305 304 299 296 295 293 298 298 298 298 299 302 301 307 303 297 300 295 295 299 295 294 299 296 300 303 305 308 311 311 312 313 312 313 313 313 313 314 315 315 316 314 313 311 315 316 317
302 305 307 306 306 303 305 304 301 297 293 295 295 299 300 301 300 300 302 304 303 302 303 299 302 297 294 292 296 300 303 306 308 309 309 311 313 314 315 313 314 313 312 312 314 314 316 314 314 313 314 316 314 315
304 305 307 307 306 304 300 300 302 294 295 298 299 301 300 301 306 306 304 307 307 308 306 302 298 296 298 302 302 303 304 305 306 308 309 313 314 314 314 314 314 314 313 314 314 312 312 311 311 312 312 314 311 313
306 306 306 306 305 301 298 300 305 298 296 300 301 299 300 300 302 303 303 304 304 302 300 298 297 301 302 305 306 307 307 310 309 307 307 311 312 311 314 313 310 311 311 311 310 306 309 310 312 313 310 310 310 310
302 306 304 304 305 305 301 300 300 301 302 300 303 301 300 302 300 299 300 305 300 298 297 301 303 306 310 311 311 311 311 312 310 310 309 309 312 311 309 311 311 311 308 307 308 308 307 309 310 309 308 308 311 313
305 306 305 306 301 301 299 304 299 301 298 297 298 301 299 298 299 299 303 299 299 301 304 303 304 306 306 308 311 312 312 313 313 313 307 309 309 309 308 310 310 309 310 309 308 306 306 308 308 308 308 308 307 308
306 305 301 300 295 292 292 300 296 297 292 294 297 295 295 296 297 301 296 297 299 304 305 304 306 309 307 310 312 313 313 311 310 312 313 312 311 312 312 311 311 310 309 309 308 306 307 305 306 306 307 307 308 307
304 297 293 292 292 288 294 293 296 293 294 292 291 288 290 294 296 291 288 292 298 304 307 309 310 307 308 310 309 309 312 314 313 313 314 312 308 310 312 311 310 309 310 311 310 309 309 309 304 307 307 306 306 306
290 290 289 286 290 289 290 291 291 290 287 289 286 286 290 294 290 292 295 299 305 306 308 308 309 309 307 309 311 313 316 314 310 309 311 312 310 309 308 309 310 310 310 309 308 308 308 308 308 308 308 308 307 306
287 293 289 293 292 291 293 292 291 290 292 291 292 299 297 295 295 295 302 304 306 308 308 309 310 309 309 311 310 310 310 313 313 309 313 312 309 308 307 306 304 301 305 305 305 304 304 304 305 305 306 306 302 306
296 301 302 307 307 304 303 306 308 304 300 299 301 302 300 295 295 301 306 309 310 313 315 314 312 308 309 311 312 313 314 315 316 311 310 310 310 308 304 301 301 302 304 304 303 303 302 302 302 302 301 302 303 305
308 307 303 306 306 306 303 302 301 300 300 304 302 298 296 297 298 307 309 315 313 317 314 315 313 313 311 311 311 310 310 310 310 309 307 307 307 306 305 305 305 297 303 302 302 302 302 301 300 300 300 300 301 303
306 309 308 304 304 304 304 303 302 304 306 304 301 301 302 308 313 310 314 314 314 311 310 309 309 310 309 310 309 308 308 306 304 302 301 300 300 301 303 303 302 302 302 301 298 298 300 299 300 299 300 301 302 304
306 308 305 304 302 301 305 306 305 308 309 309 310 309 308 310 313 317 314 312 310 308 309 309 308 307 305 304 303 305 306 305 305 302 299 298 298 300 300 299 299 300 300 301 300 300 298 299 298 298 298 299 300 299
310 308 306 305 303 307 309 310 310 310 309 308 309 307 306 309 311 313 313 313 312 312 310 307 305 305 305 303 303 301 301 304 305 305 301 300 300 299 299 299 299 300 301 300 300 299 298 297 296 296 295 296 297 295
309 307 306 303 306 309 312 310 308 307 308 308 307 309 308 306 305 310 312 311 309 308 305 306 305 304 305 305 304 305 298 303 303 302 302 300 300 300 299 300 301 301 301 299 299 298 298 296 295 295 295 295 296 295
309 309 309 307 304 306 309 309 307 306 307 306 305 307 307 306 304 310 314 313 311 308 306 307 306 307 307 305 305 304 300 304 297 293 293 293 293 295 297 298 299 300 298 298 298 297 296 295 294 295 295 294 293 293

GFSWCAN_sfc_thetae_006.txt.gz
Theta_e
306 306 307 307 307 307 307 307 307 307 308 308 308 308 308 308 308 304 302 306 302 298 298 299 299 295 295 295 292 297 298 302 305 299 296 295 294 298 300 304 302 303 301 299 299 296 293 314 313 308 310 312 315 316
307 307 307 307 307 306 307 307 306 307 307 307 308 308 308 308 308 307 300 305 306 297 297 302 303 303 302 302 295 292 293 298 301 298 301 300 300 301 299 298 307 303 306 305 304 302 310 314 312 313 313 312 315 314
308 307 307 307 306 306 306 306 306 307 307 307 307 307 307 308 307 306 301 300 299 296 296 295 297 302 304 304 303 293 296 298 300 301 298 302 299 303 301 302 305 310 313 307 308 311 314 316 316 316 317 316 317 317
307 307 307 306 307 306 306 306 306 306 306 307 306 307 307 308 307 307 299 301 298 297 289 293 303 298 303 302 302 301 298 298 299 299 295 297 298 303 302 305 306 309 308 309 308 314 314 315 315 316 318 319 319 318
306 306 306 306 305 306 306 305 305 306 306 306 306 307 307 308 308 305 301 302 302 298 292 292 300 302 303 303 304 304 299 297 297 294 293 293 301 300 299 303 302 307 307 305 303 312 310 311 315 316 312 313 315 313
306 306 306 306 306 306 306 305 305 305 306 306 306 307 307 308 308 301 298 301 303 301 291 289 299 298 300 302 301 300 301 299 298 293 294 296 301 300 296 296 302 309 312 311 310 314 313 315 315 312 309 309 311 310
306 306 306 306 306 306 306 305 305 305 306 306 306 307 307 308 299 296 297 303 305 301 294 292 294 299 302 300 301 299 299 299 297 293 293 293 295 299 299 294 298 307 307 311 314 309 303 305 303 309 312 314 313 312
306 306 306 305 305 305 306 305 305 305 305 306 307 307 308 307 304 295 301 305 303 297 295 291 293 295 299 295 296 301 297 298 297 295 294 294 296 294 294 298 299 303 306 306 306 307 305 307 308 308 310 310 308 307
306 306 305 305 305 305 305 305 304 305 305 306 306 307 301 299 294 298 312 309 302 297 291 294 290 290 297 296 298 298 300 295 298 293 292 294 293 295 294 299 302 303 303 302 305 306 306 305 304 305 306 307 304 304
305 305 305 305 305 305 305 305 304 305 306 306 301 297 292 298 313 308 297 295 295 296 294 291 295 291 293 295 294 297 297 295 292 295 297 300 297 303 304 304 304 304 305 305 303 302 303 302 304 305 305 306 305 305
305 305 305 305 306 305 306 305 305 305 304 296 294 296 303 309 297 294 289 292 294 291 293 293 293 291 298 294 294 296 293 295 291 295 294 296 297 303 306 307 308 309 309 307 306 304 304 303 304 304 305 307 307 306
305 305 306 306 306 305 307 306 305 300 300 300 300 302 300 296 291 288 287 292 292 289 293 292 293 297 298 299 296 297 293 294 290 297 295 296 303 307 308 309 309 309 310 309 309 307 308 309 308 307 306 307 309 309
305 305 306 306 306 306 306 306 306 306 305 303 298 294 293 289 280 285 282 287 289 293 293 293 292 295 296 296 296 294 292 290 296 293 297 301 305 309 308 309 309 309 311 311 310 311 311 312 312 310 310 310 311 311
305 306 306 306 306 306 306 306 306 305 301 295 291 284 286 283 288 289 290 294 297 297 295 296 295 294 296 294 294 291 294 295 291 291 294 300 302 305 306 308 308 308 310 310 310 311 313 313 312 313 313 312 312 311
306 306 306 306 307 307 306 306 306 302 297 292 292 285 289 293 294 297 297 297 298 297 296 295 296 296 294 293 294 293 292 291 294 295 299 302 303 305 305 308 307 306 308 309 311 311 311 312 311 310 311 309 312 311
306 305 303 306 307 306 306 305 301 302 296 293 293 291 294 293 294 295 293 296 297 296 296 295 293 292 292 292 291 291 292 291 295 299 301 303 304 305 304 306 308 307 307 307 307 310 310 309 308 308 310 310 311 312
305 298 306 306 306 306 305 301 299 297 294 294 291 296 296 295 294 293 295 295 299 296 293 294 290 288 294 289 290 295 295 297 300 300 302 303 303 305 306 307 307 307 307 307 307 308 308 310 310 309 305 309 310 311
298 302 307 306 304 302 298 298 297 295 290 292 290 293 295 295 294 295 296 298 297 295 295 293 296 291 289 290 291 297 298 298 301 301 302 303 304 306 308 307 307 307 306 306 306 307 307 305 304 306 306 308 308 312
301 302 306 307 304 299 296 296 296 289 291 293 295 296 294 297 296 299 296 298 297 298 297 296 292 291 291 294 296 296 297 298 299 301 304 304 305 305 306 308 310 307 308 308 306 305 305 304 304 304 305 307 305 305
305 305 305 306 305 296 294 291 298 292 290 292 294 293 294 293 294 294 296 299 295 293 292 293 295 298 298 297 298 298 300 301 301 300 301 303 305 307 305 304 304 309 306 306 303 301 302 303 302 306 307 304 303 303
303 304 304 302 300 299 296 295 293 294 294 292 294 295 293 294 293 294 295 299 292 290 290 295 296 297 300 301 302 302 306 302 301 301 301 302 308 306 307 306 305 304 301 302 303 301 300 300 301 300 301 302 303 304
303 307 300 303 297 296 293 297 293 295 291 291 292 293 292 291 292 292 295 292 292 293 295 295 296 297 298 298 301 304 307 309 307 307 305 307 305 304 304 306 305 306 305 306 304 300 298 300 300 301 300 301 301 301
305 302 297 297 292 290 289 296 294 293 290 290 293 290 290 293 293 295 290 293 293 296 297 298 298 299 300 304 306 308 309 308 306 305 307 308 309 309 305 306 306 305 305 304 302 300 299 299 300 300 300 301 300 301
304 295 292 291 291 287 294 291 293 293 293 291 287 286 289 292 294 291 289 293 296 300 302 303 305 304 304 305 305 306 307 308 307 307 308 305 305 305 305 305 303 300 300 301 302 303 302 302 301 302 302 302 302 301
290 290 290 287 290 288 289 290 290 290 287 289 286 287 289 293 290 291 294 297 300 302 304 305 304 304 302 303 304 306 308 307 307 307 308 308 305 301 301 299 296 296 298 298 297 297 297 298 299 299 299 300 300 301
285 290 288 290 289 288 290 288 289 291 291 291 291 296 293 293 293 291 294 297 299 301 302 304 304 303 305 306 305 306 306 306 306 301 301 301 298 295 294 293 293 294 297 295 295 296 297 297 297 297 297 297 296 297
292 295 295 297 298 297 297 299 298 296 294 292 294 296 296 292 293 297 300 303 305 306 309 308 309 309 306 304 303 303 305 303 301 300 300 301 297 296 296 294 293 294 296 297 296 296 296 296 295 295 295 296 297 300
299 303 298 300 301 302 297 297 296 294 295 297 297 294 293 295 296 301 303 307 309 309 308 307 305 303 301 299 299 299 298 299 299 299 298 298 296 296 295 295 294 295 295 296 295 295 296 295 295 295 294 296 297 298
302 303 302 297 299 300 298 295 295 296 298 297 295 295 297 301 304 305 306 305 304 303 301 300 300 300 299 299 299 298 297 296 295 294 293 291 291 291 293 293 293 293 293 293 294 295 295 295 294 293 293 296 296 296
300 304 301 301 299 296 300 299 298 300 302 302 303 302 302 303 305 305 304 304 302 301 300 299 299 299 296 295 295 296 297 296 295 293 291 290 290 292 292 292 292 292 292 294 294 294 295 294 293 292 292 292 291 291
305 303 302 302 301 303 306 304 305 304 304 303 304 301 301 302 304 306 305 304 304 303 300 298 297 297 296 295 294 294 292 295 295 293 293 292 291 292 293 292 293 293 294 294 294 293 293 291 291 291 292 291 292 290
304 302 302 301 302 306 308 305 303 304 304 304 304 306 306 303 299 301 304 303 301 298 299 298 296 296 297 296 296 296 295 294 293 293 292 292 292 292 292 292 292 294 294 293 293 292 291 291 291 291 291 290 290 290
305 307 306 304 302 302 304 303 302 302 303 304 303 304 306 305 301 303 305 305 301 299 298 298 298 298 297 297 296 295 295 294 293 293 293 293 292 292 291 291 292 294 291 290 290 289 289 289 290 289 289 289 289 289

GFSWCAN_sfc_thetae_009.txt.gz
Theta_e
307 308 308 308 307 307 307 307 307 307 307 307 307 308 308 307 308 302 298 303 300 297 296 298 298 294 294 292 290 294 296 299 299 297 296 295 294 299 301 304 300 302 300 300 298 295 294 311 311 304 307 309 311 311
308 308 308 308 308 307 307 307 307 306 306 307 307 307 308 308 308 306 297 303 305 298 295 299 302 303 301 300 295 294 293 297 298 294 296 298 298 298 297 298 309 300 306 302 302 299 307 311 308 312 312 310 311 312
307 307 307 307 307 307 307 306 306 306 306 307 307 307 307 307 308 306 300 299 299 293 294 291 295 300 301 302 302 293 294 298 299 298 296 301 299 300 296 300 304 309 311 304 306 307 310 312 313 314 314 313 314 315
307 307 307 306 307 307 307 306 305 306 306 306 306 306 306 307 307 306 300 297 298 296 290 291 302 300 303 301 301 299 295 298 299 298 296 299 299 301 299 301 301 307 311 307 306 312 313 312 313 315 316 316 315 314
307 307 307 306 306 306 306 306 305 305 306 306 306 306 307 307 308 304 298 298 300 297 289 291 298 301 301 299 300 300 297 296 297 295 295 295 300 299 298 301 300 307 307 305 303 312 310 310 314 316 311 311 311 310
307 307 306 306 306 306 306 306 305 304 305 306 306 306 307 306 306 297 297 297 303 303 294 287 296 298 298 298 297 296 297 296 297 294 294 297 301 302 296 296 303 307 309 310 310 314 312 312 312 313 310 310 310 309
307 307 306 306 306 306 306 305 305 305 305 306 306 306 307 307 299 294 294 300 304 300 294 291 291 297 299 296 297 295 296 297 296 294 293 293 298 300 297 293 298 301 310 312 311 306 306 309 307 310 310 310 309 307
307 306 306 305 305 305 305 305 305 304 305 305 306 306 308 307 303 295 300 305 303 296 295 288 290 293 296 293 293 297 295 295 295 294 294 294 296 298 294 296 300 303 305 305 306 307 308 308 306 306 306 306 304 304
306 305 305 305 304 305 305 304 304 305 304 305 306 306 300 297 293 295 309 307 300 296 290 291 289 289 295 293 294 297 298 293 296 291 295 300 296 293 296 296 300 301 300 300 303 304 304 303 303 304 305 305 303 303
305 305 304 304 304 304 305 304 303 304 305 305 300 295 292 298 310 305 296 293 294 295 292 290 293 290 292 293 292 295 295 293 290 293 302 301 300 300 301 302 302 303 303 303 302 301 302 302 302 303 303 304 304 305
305 304 304 305 305 305 305 304 304 304 302 296 295 295 301 306 295 293 292 291 292 291 292 293 292 290 296 293 294 296 293 292 290 294 298 299 298 301 305 305 305 306 306 304 304 303 304 303 303 304 304 305 307 307
305 305 306 306 306 305 306 305 305 299 300 300 299 300 298 294 290 287 286 290 291 290 293 293 292 293 296 298 295 296 293 293 289 296 297 296 302 305 306 307 306 306 308 308 308 307 309 310 309 307 307 307 307 308
306 306 306 306 305 305 306 305 306 306 305 302 296 292 290 286 278 285 284 286 287 292 293 293 292 294 296 296 295 294 293 291 297 296 296 299 303 307 307 307 307 308 309 309 309 310 312 311 312 310 309 310 310 310
306 306 306 306 306 306 305 305 305 304 300 294 291 282 285 284 289 291 291 292 296 297 295 296 294 294 295 293 293 292 293 296 294 292 294 301 303 305 307 309 306 306 308 308 308 310 310 310 310 310 310 309 310 309
306 306 306 306 307 306 306 305 305 302 295 290 291 286 290 294 294 297 298 296 298 298 296 294 295 295 293 293 293 292 292 291 294 294 298 301 302 303 303 305 304 304 305 305 307 308 308 309 307 306 308 308 309 309
305 303 304 307 306 306 305 302 299 299 294 292 293 291 294 294 293 294 295 295 297 295 295 295 292 291 291 291 291 292 292 291 294 297 299 300 301 302 303 304 305 306 305 304 304 306 306 306 307 307 307 307 308 309
303 297 306 305 305 305 304 298 297 295 292 293 292 297 295 292 294 294 295 295 297 295 292 293 290 289 292 288 291 295 294 296 299 299 299 299 300 301 304 305 305 305 304 304 304 304 305 307 305 304 304 306 307 307
297 300 307 306 304 301 297 297 295 294 290 292 291 294 294 294 293 294 295 296 296 293 294 293 294 291 290 290 293 297 297 296 298 299 300 301 301 303 304 304 305 304 304 305 304 304 303 302 301 302 302 305 305 305
300 301 306 306 304 297 294 295 294 291 293 292 292 292 292 292 293 294 294 296 295 296 295 293 292 292 294 296 295 294 295 297 298 299 301 303 303 303 304 304 304 303 307 304 304 303 302 301 300 300 301 302 303 303
305 304 306 306 304 294 292 290 295 291 289 291 292 292 292 290 291 292 294 295 292 292 292 292 294 294 294 295 296 297 298 299 299 298 299 301 302 304 303 304 303 301 302 301 301 299 299 299 299 301 302 302 301 302
303 303 305 303 298 296 292 291 290 291 291 289 291 291 291 293 292 292 291 293 291 288 289 293 295 296 297 297 298 298 302 302 299 299 299 299 303 304 304 303 302 302 302 300 303 302 298 297 298 299 299 300 300 301
300 306 299 301 295 293 291 293 290 291 289 289 289 291 290 290 290 289 291 290 289 291 292 293 294 294 296 296 298 300 301 306 307 304 302 303 305 302 303 304 304 303 303 303 301 300 297 297 298 297 297 297 298 298
304 300 295 295 290 287 286 293 292 291 287 289 291 289 288 290 291 292 288 289 290 292 294 295 297 297 298 301 303 305 305 304 303 304 305 305 305 306 304 303 302 298 296 296 297 297 297 297 298 298 299 299 299 299
303 294 290 290 290 287 290 289 290 291 292 288 286 286 289 291 294 292 290 293 293 297 300 302 304 303 304 305 304 304 304 303 303 304 305 304 302 300 296 293 293 294 294 294 294 294 295 296 296 296 297 297 297 296
291 291 290 286 290 288 289 290 290 290 288 290 287 288 290 294 291 292 294 297 299 301 303 304 303 303 302 302 303 303 304 303 303 303 301 301 300 296 293 293 293 293 294 293 293 294 296 297 295 295 295 294 294 294
286 290 288 289 288 288 288 287 289 290 291 291 291 295 291 293 293 291 296 298 298 299 300 302 302 302 301 302 302 302 301 303 300 295 295 294 294 294 292 291 290 291 294 292 292 293 294 294 294 294 294 295 295 298
289 292 293 294 293 292 293 295 294 291 292 290 291 294 294 289 292 297 301 303 304 305 305 304 303 302 302 299 299 296 296 296 296 295 295 293 293 294 293 291 290 292 293 294 293 293 294 293 293 293 293 296 297 297
296 298 295 294 295 297 295 295 294 293 295 296 296 293 292 293 293 298 301 303 304 303 302 302 302 298 296 295 294 295 295 295 296 295 294 293 291 291 291 292 292 292 291 292 292 293 293 293 292 292 291 294 295 296
297 301 299 295 297 296 295 293 293 295 297 296 294 294 296 299 302 301 301 300 299 299 297 297 296 296 295 295 295 294 293 293 292 290 289 288 288 290 290 291 291 291 290 292 293 293 293 293 292 291 291 292 294 294
297 301 300 299 296 295 297 297 297 298 300 300 301 299 300 301 302 302 300 299 297 295 294 295 294 294 293 293 292 293 293 292 292 290 288 288 288 289 290 290 290 290 291 292 292 292 292 291 291 291 291 291 290 289
301 302 301 299 297 299 301 304 303 301 302 301 303 301 299 301 303 303 301 299 298 298 296 294 294 293 293 292 291 291 290 291 291 291 291 289 289 290 290 289 289 290 291 291 290 289 289 289 289 289 289 289 289 289
304 302 300 298 299 304 306 303 303 303 303 301 304 306 304 302 300 301 304 302 300 296 295 294 293 293 294 292 292 291 292 290 291 291 290 290 290 290 289 289 289 291 290 289 289 288 289 289 288 288 288 287 287 288
304 304 305 304 300 301 302 303 301 302 304 303 304 305 305 301 297 303 309 307 302 296 293 294 294 293 292 292 291 291 291 291 290 290 291 290 290 289 289 289 290 289 287 286 286 286 285 286 286 285 284 284 284 285

GFSWCAN_sfc_thetae_012.txt.gz
Theta_e
307 307 307 307 308 308 308 308 308 307 307 307 307 307 308 307 308 303 297 300 299 294 295 298 298 294 294 293 290 295 294 298 298 295 294 292 292 296 298 303 301 301 297 298 298 293 293 309 310 303 307 311 311 312
308 307 307 308 308 307 307 307 307 307 306 306 307 307 307 307 307 306 295 299 305 297 295 300 300 302 300 299 294 294 291 296 299 294 296 296 297 297 297 296 307 300 306 302 302 298 307 310 308 311 311 313 313 315
307 308 307 307 307 307 307 307 307 307 306 305 306 307 306 307 306 305 296 295 295 296 294 293 293 298 302 302 304 292 294 298 299 298 295 300 297 299 296 299 303 308 310 305 305 308 310 311 312 314 314 312 313 313
306 306 307 306 307 306 306 306 306 306 305 305 306 306 306 306 307 305 297 296 297 295 289 290 299 297 300 300 301 301 298 297 298 298 296 296 296 299 297 300 301 306 309 307 307 309 311 313 314 315 313 313 311 311
306 306 306 306 306 306 306 306 306 306 304 305 306 306 306 306 307 304 298 299 299 293 289 289 295 298 298 298 300 300 297 295 294 294 294 294 297 298 299 302 301 303 305 304 303 311 308 310 313 314 311 311 311 311
307 306 307 307 306 306 306 305 306 305 304 305 305 306 306 307 305 295 295 298 300 298 294 287 292 294 298 297 297 295 296 296 296 293 294 300 299 301 298 298 301 303 307 309 307 309 309 309 310 312 307 307 308 308
307 307 307 305 305 306 305 306 305 305 304 305 305 306 306 307 297 291 294 299 304 301 294 288 288 296 298 296 297 295 295 297 296 292 294 295 295 300 298 293 300 305 309 308 310 309 304 307 306 309 308 307 308 307
306 306 305 305 304 305 306 305 304 304 304 305 305 306 307 307 303 296 300 305 303 297 294 288 290 292 295 292 293 295 293 294 294 293 293 296 300 301 296 300 303 306 307 307 308 309 308 309 308 306 307 307 306 305
306 305 305 304 304 305 305 304 304 304 304 304 305 306 300 296 293 298 307 308 300 293 289 292 290 289 295 292 293 295 294 290 293 295 298 300 298 297 300 301 302 302 302 303 305 305 306 305 304 305 304 304 304 305
305 305 304 304 304 304 305 304 303 304 304 305 298 296 293 298 308 305 295 292 292 292 291 289 293 289 293 294 292 293 292 290 288 294 302 300 299 303 303 304 304 304 304 304 302 302 303 302 303 304 304 306 306 306
305 305 304 305 305 304 305 304 304 305 302 297 295 295 300 304 295 294 292 291 291 289 293 292 292 291 296 293 293 295 291 290 288 294 296 299 297 300 304 306 306 307 307 305 305 305 305 305 305 306 307 308 308 308
306 306 306 306 306 305 305 305 305 300 300 300 299 301 297 293 290 290 286 290 290 290 294 293 293 293 295 298 293 295 291 291 287 296 296 295 301 304 304 306 306 307 308 308 309 309 310 310 310 309 309 309 309 310
306 306 306 306 306 306 305 305 305 306 304 299 294 289 288 286 283 285 285 287 288 293 295 294 291 296 295 296 294 294 292 289 298 297 294 298 303 306 304 306 306 308 309 309 310 311 310 309 311 310 308 309 310 311
306 306 306 306 306 305 305 306 305 303 299 294 291 286 288 285 290 291 291 292 296 296 296 294 293 294 294 293 294 292 292 296 293 292 293 301 302 304 306 306 306 305 307 307 307 308 308 308 308 309 310 309 309 309
306 306 306 306 306 306 306 306 306 299 294 292 292 286 289 294 296 297 297 296 298 298 296 295 294 294 293 293 293 294 293 291 294 293 298 302 303 304 305 306 306 306 305 305 305 306 306 307 307 307 309 308 310 310
304 303 301 306 306 306 305 302 298 298 295 294 291 290 294 293 293 295 296 296 298 296 296 295 291 290 289 291 292 292 292 289 294 298 301 301 302 303 303 304 305 305 304 303 303 305 305 305 305 305 307 308 308 309
303 296 305 307 306 306 304 297 296 294 292 292 292 294 293 292 292 293 294 294 296 294 291 293 290 288 292 291 291 296 294 296 299 298 299 300 300 301 303 304 305 305 304 304 304 304 304 305 304 303 304 306 308 309
296 299 304 306 305 299 296 296 295 293 290 291 290 293 293 292 291 292 293 294 295 294 294 293 294 292 291 291 292 295 295 296 297 298 300 301 302 303 304 304 304 303 304 304 304 304 303 303 301 301 303 304 306 306
299 301 306 307 304 295 293 294 293 288 289 289 290 291 291 291 292 293 294 297 294 296 295 294 294 292 291 294 293 295 296 297 298 299 300 302 303 306 306 306 306 305 304 303 302 303 303 302 301 301 302 303 303 304
306 306 307 307 303 293 291 289 294 289 287 290 290 290 290 290 292 293 294 294 291 292 292 292 293 294 294 295 296 298 298 299 299 298 298 301 304 305 306 305 303 303 302 303 302 300 302 301 300 301 302 303 304 303
302 301 305 301 296 293 291 289 289 289 289 288 289 289 289 291 291 290 290 291 291 288 290 293 295 296 297 298 298 299 299 301 299 299 299 301 305 306 305 304 303 303 304 303 303 303 300 298 298 300 300 300 300 301
297 305 296 298 292 291 290 290 288 290 288 288 288 289 288 290 289 288 289 289 289 291 292 293 293 294 295 296 297 298 300 304 307 304 301 302 304 303 306 303 302 299 297 297 297 297 297 298 299 300 300 300 300 301
302 298 294 293 288 285 285 291 289 289 286 287 288 286 285 288 289 291 288 288 289 292 293 297 300 300 298 301 302 303 305 305 305 306 305 305 305 306 299 296 296 295 294 294 295 296 296 295 297 298 299 299 299 298
302 293 288 287 287 287 291 290 290 290 290 289 288 287 290 291 294 294 292 295 294 297 301 304 304 304 305 305 302 302 302 303 302 302 303 303 300 294 294 294 294 294 295 294 294 295 296 297 295 297 297 297 297 297
290 289 289 285 289 288 289 290 290 290 289 291 288 289 292 294 293 293 294 298 300 300 300 301 301 300 300 301 302 302 302 301 302 296 295 302 296 296 295 296 295 295 295 294 293 294 295 296 295 296 296 297 298 299
287 288 287 286 285 287 286 286 287 288 290 289 289 292 292 294 293 291 294 297 299 300 301 301 300 300 297 298 297 295 295 296 296 294 295 295 295 294 294 292 291 292 295 294 293 293 295 295 295 295 296 298 295 298
289 293 294 292 291 291 292 292 294 290 291 290 290 294 292 289 291 295 299 301 301 302 303 303 302 299 295 293 294 295 294 295 295 295 294 294 294 295 294 292 292 292 294 294 294 295 294 294 294 294 294 298 299 299
296 297 294 294 293 295 293 294 293 292 294 295 295 293 293 293 293 298 300 302 302 301 297 297 296 295 295 295 294 294 295 295 295 295 294 294 293 292 293 293 293 291 293 293 295 295 295 294 294 293 293 293 296 298
297 299 297 293 294 296 295 294 293 294 296 297 294 294 295 298 299 300 299 297 297 298 296 295 295 295 295 295 295 294 292 293 292 291 290 289 289 291 291 292 291 292 293 294 292 293 294 293 293 293 293 293 294 295
297 299 297 297 295 294 297 297 297 298 298 299 299 298 297 298 301 302 299 298 296 295 294 294 293 292 291 291 291 292 291 291 290 289 288 288 289 290 291 291 291 291 292 293 293 293 292 293 292 293 292 291 291 291
302 302 300 299 297 300 301 303 301 302 304 303 302 299 298 299 301 306 305 302 299 297 293 292 293 292 291 290 290 289 289 291 290 291 291 290 290 291 291 291 291 291 292 292 291 291 291 290 289 289 288 288 288 288
301 300 299 297 299 305 306 303 300 301 303 304 302 303 302 300 296 301 307 306 301 297 294 293 291 290 290 290 290 290 290 289 290 290 290 290 290 290 290 290 289 290 290 288 288 287 288 288 287 286 285 285 285 285
300 301 301 300 299 299 301 302 301 301 303 302 301 302 302 300 295 302 309 309 303 295 292 292 291 291 290 289 288 289 289 289 289 288 288 288 288 287 287 287 288 287 286 286 286 285 285 285 284 284 284 284 284 284

GFSWCAN_sfc_thetae_015.txt.gz
Theta_e
307 307 307 307 308 308 308 308 308 308 307 307 307 307 307 307 307 305 302 303 300 293 294 296 296 293 295 295 290 294 294 299 302 301 302 300 300 304 306 309 307 306 304 304 305 301 300 315 314 310 315 317 318 320
306 306 306 307 307 307 307 307 307 307 307 307 306 306 306 306 306 305 300 303 304 296 294 300 300 300 300 300 296 296 294 295 299 297 301 301 304 305 307 302 312 304 310 305 308 306 315 317 315 318 320 320 321 322
306 307 306 306 306 306 307 307 307 307 307 306 306 306 306 306 306 306 301 300 299 294 295 295 294 300 303 303 303 293 296 301 302 302 301 301 301 308 306 307 308 312 315 309 310 313 314 315 317 318 318 317 318 320
306 306 306 306 306 306 307 306 306 307 306 305 306 305 305 306 306 306 302 303 300 296 288 292 302 299 305 304 302 302 301 301 303 301 300 300 300 306 308 309 310 310 313 310 310 312 315 316 315 315 315 316 316 317
306 306 306 307 307 306 306 306 306 305 304 304 305 305 305 306 306 307 305 303 303 294 288 290 297 301 303 302 301 302 301 299 297 298 299 298 302 304 308 312 304 305 308 309 307 315 315 315 315 315 313 313 315 315
307 307 307 306 306 305 306 306 306 305 305 304 305 304 305 305 304 301 294 300 304 302 292 288 298 299 302 301 301 300 300 299 298 299 299 301 305 307 307 303 304 308 313 312 311 313 310 311 311 312 311 311 312 312
306 307 306 305 305 305 305 305 305 305 304 305 305 305 305 306 304 297 293 299 303 303 294 290 292 301 303 301 300 299 301 301 301 299 296 299 304 308 304 298 303 308 311 312 313 312 308 309 308 311 312 311 311 312
306 306 306 305 305 305 305 305 304 304 304 304 304 305 306 307 305 299 302 305 304 297 296 289 291 297 302 299 298 302 299 301 299 299 302 305 308 307 298 302 305 309 309 308 309 311 311 312 311 311 312 312 311 310
305 305 305 305 305 305 305 305 304 304 304 304 305 305 304 301 297 300 307 309 304 297 291 293 291 293 303 299 300 300 301 296 300 303 305 306 303 298 301 303 303 305 305 306 308 308 308 308 309 310 311 311 311 311
305 305 305 305 305 305 305 305 305 305 305 304 302 298 296 301 307 307 302 297 295 296 295 291 296 293 298 300 299 299 300 297 300 304 309 302 298 305 306 307 308 308 307 307 307 306 308 308 309 311 311 312 313 313
306 306 306 306 305 306 305 305 306 305 305 302 297 297 303 305 301 297 293 292 294 292 295 296 297 295 302 297 298 300 297 298 297 301 302 299 297 303 308 309 310 311 312 311 312 312 313 313 311 311 312 315 316 316
306 306 306 306 307 306 305 305 306 304 303 301 301 303 302 298 295 291 291 293 293 290 298 296 298 298 299 302 299 301 297 299 293 304 301 295 301 307 308 309 310 311 314 313 313 313 313 313 314 314 314 314 316 317
307 307 306 306 306 306 306 306 306 306 306 304 299 294 293 293 288 288 288 292 293 297 299 299 296 299 302 301 300 300 296 295 304 299 295 298 305 308 309 310 310 312 312 312 312 313 313 313 315 315 315 316 318 317
306 306 306 307 307 307 306 306 306 305 302 296 292 287 288 288 291 292 293 295 299 300 299 298 297 299 301 299 300 295 298 301 294 291 293 301 305 307 310 311 309 309 310 310 310 311 311 312 313 315 315 316 317 317
305 305 305 306 307 307 307 306 305 304 299 294 292 285 288 294 297 298 300 299 301 302 300 300 300 300 298 298 299 298 295 292 292 291 298 304 306 309 309 310 310 310 310 309 310 310 310 311 311 313 315 316 317 319
305 303 304 306 306 307 306 304 302 303 299 294 294 292 295 294 295 297 297 297 301 300 302 301 297 295 294 297 295 294 292 289 294 300 303 306 306 308 309 310 311 311 311 311 311 311 311 311 311 311 314 316 317 318
304 302 305 305 307 305 304 302 302 298 297 295 295 298 297 296 295 297 298 298 300 300 297 299 294 291 298 295 294 297 292 296 300 303 306 307 307 308 310 311 311 311 312 312 312 313 313 312 312 312 312 314 316 316
302 304 305 307 307 303 303 302 300 297 294 296 294 296 296 297 296 298 298 300 299 300 300 297 300 295 293 291 293 298 301 304 306 304 307 308 310 310 311 311 311 310 310 311 312 312 312 312 311 310 312 314 313 314
305 306 307 307 305 302 299 299 299 294 295 296 297 297 297 297 299 299 299 300 299 301 302 301 297 294 295 299 300 302 303 304 304 305 306 308 309 310 311 311 312 312 312 311 311 311 311 312 311 311 311 312 311 311
306 306 307 307 305 301 297 298 301 296 294 296 297 296 297 298 299 299 299 298 297 301 298 297 297 299 300 302 303 304 304 306 305 305 305 307 307 310 311 311 311 311 311 311 310 303 311 311 310 310 309 310 310 308
305 305 305 305 302 301 298 296 296 296 296 296 297 297 297 299 297 296 296 297 299 296 297 299 300 301 302 303 304 304 305 307 306 307 307 306 308 306 310 310 310 308 305 304 304 304 303 305 306 308 308 308 308 309
304 305 302 302 297 297 297 298 296 297 295 296 296 297 295 294 295 297 297 297 297 298 299 300 302 303 305 306 307 307 307 308 310 309 303 305 309 308 306 305 302 301 301 301 302 302 302 303 303 304 304 305 304 306
304 302 300 298 294 292 291 298 295 296 292 293 295 293 293 295 297 301 297 299 297 298 298 300 304 308 307 309 310 309 310 311 310 310 310 310 311 311 302 302 302 301 300 299 301 301 301 298 302 302 303 302 302 302
303 297 293 292 293 290 296 294 296 294 294 292 290 288 292 295 300 300 297 300 305 304 306 309 309 308 311 309 307 306 307 309 308 306 304 309 303 299 300 299 300 300 300 300 300 300 300 301 297 301 301 301 301 302
291 290 292 286 293 292 292 293 293 294 292 293 291 292 295 298 297 296 296 302 306 306 308 308 309 307 305 302 302 303 305 304 302 302 304 309 302 301 301 302 301 300 300 299 298 298 299 301 300 300 300 300 301 302
289 293 289 293 292 291 293 291 292 293 293 293 295 298 298 298 295 295 300 304 306 307 307 307 304 300 299 300 300 300 301 303 304 302 302 301 302 301 299 298 297 298 300 300 299 299 299 299 299 299 298 298 296 300
293 297 298 299 297 296 296 297 298 296 294 295 297 298 297 293 294 300 306 306 306 306 306 303 302 299 298 298 300 300 302 301 301 301 301 301 301 300 299 297 296 298 300 300 300 300 299 298 298 298 298 299 299 299
298 299 296 299 295 297 296 298 297 296 298 301 300 296 296 296 293 298 301 303 305 303 301 300 300 300 299 299 299 298 298 299 301 301 301 301 300 299 299 299 299 292 298 300 300 300 299 299 298 297 297 297 298 301
298 303 301 298 297 298 299 299 298 300 303 302 299 297 296 297 299 299 300 300 301 299 297 297 297 299 299 300 298 297 296 296 295 293 293 293 294 296 298 298 299 299 299 299 292 294 297 297 297 297 296 296 296 296
303 305 302 301 299 300 303 303 302 303 303 301 300 301 300 302 305 307 303 300 298 297 297 297 296 296 294 294 294 296 296 295 295 293 291 291 293 296 297 297 297 297 298 298 297 297 292 294 293 294 292 292 292 291
308 307 304 303 303 305 307 307 307 306 304 303 304 301 299 301 305 307 307 304 300 298 296 294 294 293 292 291 291 291 291 293 294 294 293 295 294 294 293 294 294 295 294 293 293 292 291 291 291 290 289 288 288 288
308 306 305 301 304 310 311 308 306 304 302 300 299 301 300 300 299 303 309 309 302 296 294 294 292 291 293 293 293 293 290 291 291 291 290 291 291 291 291 292 292 291 291 290 290 290 289 288 288 287 287 287 287 287
306 308 307 306 305 304 308 307 305 303 303 301 302 304 303 301 298 305 305 302 297 295 295 294 293 293 293 292 292 292 291 291 289 287 288 287 287 287 289 289 290 290 289 288 288 288 287 287 286 286 286 287 287 287

GFSWCAN_sfc_thetae_021.txt.gz
Theta_e
308 308 308 308 308 308 308 308 308 307 308 308 309 308 308 308 308 307 306 309 299 292 295 300 300 295 296 296 291 297 297 298 298 296 296 297 297 300 300 305 305 302 303 303 307 304 301 322 321 314 323 328 328 329
308 308 308 308 308 308 308 308 307 308 308 308 308 308 307 307 307 307 300 308 306 297 296 304 304 304 303 302 298 299 297 296 300 299 301 301 300 305 303 299 311 304 309 307 309 309 324 324 324 326 327 327 329 331
308 308 309 309 309 308 308 308 308 307 308 308 307 307 306 307 306 305 303 304 303 297 297 299 300 306 308 306 306 297 300 301 300 304 299 301 298 307 304 304 309 313 316 313 316 320 320 322 323 325 327 326 331 332
308 308 308 308 307 307 307 307 307 307 306 306 306 306 306 306 306 306 302 307 302 296 293 296 306 304 307 307 305 305 304 306 305 303 296 300 300 308 303 310 314 307 313 312 318 320 320 321 322 323 324 326 328 332
308 307 307 307 307 307 307 307 307 307 306 306 306 306 305 305 305 306 305 308 308 297 292 296 303 307 308 306 305 305 302 301 299 297 295 301 306 304 309 309 303 307 307 306 315 321 321 318 320 322 322 323 325 325
307 308 307 307 307 307 306 306 306 306 306 305 306 306 306 305 306 305 299 306 308 306 294 291 304 305 309 307 306 305 304 303 302 296 297 305 307 306 302 301 306 313 316 320 316 324 319 317 317 316 317 317 319 321
307 307 307 307 307 307 307 306 306 306 306 305 305 306 306 306 304 301 298 303 303 306 295 291 296 305 310 309 306 305 306 303 299 297 300 303 304 306 305 299 307 311 317 318 324 323 319 320 317 315 314 314 316 317
308 308 308 308 307 307 307 307 307 307 307 306 306 306 307 307 306 300 304 307 306 299 296 290 293 303 310 303 302 307 302 304 302 301 302 304 306 307 298 305 308 310 313 314 316 319 318 319 318 317 316 314 313 314
308 308 308 308 308 307 308 308 308 308 308 308 308 307 307 304 301 306 307 307 305 298 290 292 287 294 308 303 305 304 304 296 306 298 299 306 300 297 303 306 307 309 310 308 311 312 313 313 314 315 315 312 312 312
308 308 308 308 308 308 307 308 308 307 307 309 308 306 302 309 307 309 303 298 295 296 295 293 300 299 304 304 300 301 303 299 295 298 307 300 297 304 308 310 311 310 309 310 308 307 308 306 308 310 311 313 314 316
307 307 308 308 308 308 308 308 308 307 309 307 303 303 307 310 307 303 296 292 292 291 296 299 302 303 309 302 300 304 302 301 294 299 300 295 293 301 308 311 312 314 314 309 309 309 313 313 311 311 313 315 314 317
307 307 307 307 308 308 308 308 308 308 307 305 304 306 308 304 300 295 294 297 295 293 300 301 305 307 305 307 305 303 299 300 292 302 297 290 298 305 308 310 312 313 313 313 314 314 314 316 316 315 315 316 317 319
307 307 307 307 307 307 308 308 308 308 307 309 305 300 298 299 290 290 287 292 294 299 302 305 303 308 308 306 304 301 298 297 307 297 292 297 304 308 310 311 312 315 314 313 314 317 316 317 318 317 318 319 320 319
307 307 307 307 307 308 308 308 307 308 309 301 297 289 292 291 295 294 296 299 305 305 304 305 307 305 309 305 304 298 303 303 295 292 294 300 305 308 311 313 312 311 312 311 312 313 314 315 316 318 319 321 320 318
307 307 308 308 308 308 308 308 307 312 306 300 299 290 296 300 303 301 303 305 305 306 306 306 306 306 305 302 304 301 297 293 292 291 299 305 307 312 312 311 312 313 313 312 313 314 313 314 316 318 319 318 319 319
307 307 310 308 308 307 307 310 314 315 311 306 302 298 300 298 298 301 305 305 309 308 309 308 302 300 300 301 298 295 294 289 294 298 305 308 308 314 315 314 314 314 314 315 315 314 314 315 315 314 316 316 316 316
306 310 308 308 307 307 309 312 312 304 304 299 298 303 302 302 301 304 306 306 311 307 303 304 298 296 302 297 295 296 290 294 301 304 307 311 313 313 314 315 315 315 315 315 315 316 316 316 317 315 315 316 316 317
309 311 309 308 308 311 316 312 308 303 299 301 300 302 304 305 305 306 308 310 309 307 306 302 305 300 296 293 294 300 303 308 311 312 314 315 316 316 316 316 316 317 316 316 317 318 318 315 315 312 314 316 315 314
309 309 308 308 308 308 307 307 308 300 301 303 304 305 305 306 308 309 310 311 311 311 307 304 300 296 297 302 302 303 307 310 312 315 314 317 318 317 317 317 318 316 316 316 315 312 313 316 314 313 313 313 311 312
307 308 308 308 309 310 303 305 310 303 299 302 305 304 305 305 308 309 308 308 307 306 303 299 300 302 304 307 309 310 311 314 315 313 313 314 315 315 315 314 313 315 314 314 312 306 311 311 311 311 312 312 311 311
310 312 309 312 313 311 307 305 305 305 305 303 305 305 305 308 306 306 306 309 306 304 303 306 309 313 316 315 315 315 313 313 311 311 311 312 314 313 312 311 313 311 310 309 308 307 307 308 309 310 310 310 310 311
312 308 312 314 309 308 309 309 305 307 303 304 305 306 303 302 303 304 308 305 302 304 308 311 314 315 311 313 315 317 318 316 316 314 307 310 315 312 310 310 309 309 309 308 308 307 307 308 307 307 307 307 306 309
309 311 313 311 305 301 301 312 303 303 300 301 303 302 302 303 309 311 303 306 305 312 313 313 312 313 311 311 311 311 314 314 308 308 309 311 312 311 309 309 309 307 306 306 307 306 305 302 304 305 306 306 306 306
304 307 305 305 307 301 310 306 309 305 307 303 302 299 303 306 310 305 299 304 310 315 309 313 309 308 309 311 306 306 306 307 307 308 307 307 306 307 309 308 308 307 306 305 305 305 305 305 301 305 305 304 304 304
299 299 305 295 309 305 302 303 303 305 300 303 301 301 304 310 302 299 298 303 306 305 306 308 308 307 304 304 304 304 307 305 304 304 306 306 305 305 306 306 307 306 306 304 302 303 303 304 304 304 303 303 302 302
295 306 300 306 308 304 304 301 302 302 303 301 301 308 309 307 298 297 298 303 302 302 303 304 304 303 304 304 302 302 302 303 304 302 304 305 304 302 301 300 300 302 304 303 302 301 302 303 302 302 302 301 297 300
299 305 312 315 311 309 309 310 310 306 300 299 302 303 303 297 294 295 300 302 302 305 307 307 305 304 302 303 304 303 303 302 302 301 303 304 305 304 302 299 299 300 302 302 303 302 301 301 300 300 300 301 301 300
310 310 306 310 310 311 305 305 302 301 303 306 304 299 297 296 293 299 302 306 306 306 305 305 306 305 303 302 303 302 301 300 301 301 302 303 303 301 301 300 301 294 300 301 301 301 300 299 299 299 298 297 298 299
310 314 313 306 307 308 307 304 304 306 308 306 303 298 298 300 303 304 304 305 304 304 301 302 303 304 303 302 301 300 299 297 295 293 293 293 294 295 298 298 298 298 298 298 292 295 297 296 296 296 297 297 296 296
310 317 309 307 306 304 306 309 308 309 309 308 305 300 301 303 306 310 310 310 306 304 304 303 303 300 298 297 296 297 298 297 295 293 290 290 292 294 295 296 296 296 297 297 296 296 295 295 294 296 294 294 293 292
311 309 307 308 308 310 309 311 311 309 308 306 306 303 301 305 310 315 311 307 304 304 302 301 300 298 297 296 295 294 293 296 296 294 292 292 293 293 294 294 295 295 295 295 294 294 293 293 292 292 291 290 290 290
311 306 306 303 308 312 311 309 311 309 307 307 305 305 304 303 302 307 305 304 302 301 298 299 297 296 297 297 297 297 292 296 294 293 291 291 291 292 293 293 294 294 294 293 293 293 292 291 290 290 290 289 289 289
309 308 307 306 307 308 311 310 308 306 306 303 304 307 305 303 298 303 307 306 303 300 300 300 300 299 298 297 297 296 295 296 290 287 287 287 286 288 291 293 293 294 293 293 292 292 291 290 290 289 288 289 289 289

GFSWCAN_sfc_thetae_024.txt.gz
Theta_e
309 309 309 310 310 310 310 309 309 308 308 309 309 309 309 309 308 308 306 309 302 293 295 299 299 296 296 295 290 296 294 298 296 292 292 292 295 298 298 302 304 302 301 302 306 303 300 321 319 312 322 328 327 328
309 309 309 309 309 309 310 309 308 308 308 309 309 308 308 308 308 307 303 310 308 298 295 302 302 305 303 301 297 297 295 297 299 297 298 299 296 301 301 295 306 300 305 304 309 308 322 325 324 328 329 328 328 327
309 309 309 309 309 309 309 309 308 308 308 307 307 307 307 307 307 307 305 304 302 295 296 299 298 305 307 305 306 296 298 302 300 304 299 300 298 304 300 302 305 309 313 304 310 319 322 324 326 327 328 328 334 334
309 308 309 309 308 309 309 308 308 308 307 307 307 307 307 307 306 306 303 305 301 297 289 295 305 303 308 308 307 305 302 304 306 304 298 299 299 305 300 302 304 311 312 312 311 322 321 322 324 325 328 331 331 331
308 308 308 308 308 308 308 307 307 307 307 307 307 307 307 307 306 306 304 306 307 296 290 294 301 305 308 307 306 306 303 301 300 298 295 296 304 304 305 306 302 309 310 309 312 316 319 322 325 326 323 324 327 327
309 309 309 309 309 309 308 308 307 307 307 307 307 307 307 307 306 304 298 308 308 304 294 290 302 303 306 308 303 304 303 301 303 298 295 298 307 305 301 296 305 310 316 321 314 313 313 318 319 321 320 321 321 322
309 309 309 309 309 309 309 309 309 309 309 309 308 307 307 307 305 299 297 303 305 307 296 291 295 307 310 306 303 304 305 303 301 295 294 299 305 305 303 297 306 310 317 314 314 315 312 315 313 316 317 319 318 319
309 309 309 309 309 309 309 309 309 309 309 309 309 309 308 308 307 303 307 306 306 301 296 289 293 300 309 301 299 305 301 302 300 299 301 302 306 305 298 305 308 311 312 315 314 319 319 317 317 315 316 316 315 316
308 308 308 309 309 309 309 309 309 309 309 309 309 310 308 304 301 307 308 306 305 298 290 292 288 293 305 303 305 302 303 297 304 298 298 302 299 296 303 306 307 307 308 310 312 314 315 315 314 316 317 314 312 311
308 308 308 308 308 308 309 308 309 309 308 309 309 305 302 309 310 309 303 297 296 296 295 291 298 294 303 303 301 301 303 299 294 296 302 297 295 305 308 310 310 310 311 311 308 307 310 311 313 314 312 315 317 315
308 308 308 308 308 308 308 308 309 309 309 308 303 301 306 311 307 303 296 292 293 291 295 297 302 299 309 301 302 304 301 300 287 294 298 293 292 301 308 309 312 312 311 311 313 312 313 314 313 314 315 315 316 317
308 308 308 308 308 308 308 308 309 308 308 304 303 306 307 305 300 294 293 296 296 294 300 301 304 305 306 310 300 304 299 299 288 302 295 289 295 305 308 309 311 315 314 313 313 313 313 313 313 315 316 316 317 320
308 308 308 308 309 308 308 308 309 308 308 311 306 303 301 300 290 286 288 292 293 302 304 304 301 304 308 306 302 301 296 295 304 297 292 294 302 307 309 311 312 313 314 314 314 315 317 317 319 319 318 319 319 319
307 307 307 308 309 308 308 308 309 310 309 303 299 291 297 295 296 292 292 296 304 306 305 306 304 305 303 300 301 297 300 302 294 289 292 300 305 308 310 311 312 311 312 312 313 314 314 316 316 318 319 320 319 318
307 307 307 309 309 308 308 308 309 313 309 303 302 294 298 302 302 303 303 305 307 309 308 306 304 305 304 302 303 301 297 290 290 290 298 303 306 310 311 312 313 313 313 313 313 313 315 316 316 316 317 319 319 320
307 307 311 309 308 308 307 311 315 317 312 306 303 298 302 301 301 303 304 304 310 311 309 308 303 300 298 300 297 294 292 288 292 298 303 306 309 312 312 315 316 316 313 314 315 315 316 315 315 316 316 317 316 316
306 310 309 308 308 307 310 313 313 306 303 301 299 304 304 302 302 304 307 307 313 309 302 303 298 298 302 295 292 294 291 295 300 303 306 310 313 312 313 316 316 316 316 317 315 318 319 318 317 315 315 315 316 317
310 313 310 308 308 311 315 313 308 304 300 302 300 303 305 307 306 306 308 310 307 307 305 301 304 297 294 292 294 300 303 306 307 307 311 312 314 316 316 316 317 318 318 315 311 313 318 314 319 313 320 318 317 320
308 309 308 308 309 308 308 307 309 301 302 304 305 307 307 307 310 312 310 311 311 310 308 304 298 297 299 303 304 308 311 312 311 314 316 318 318 319 313 314 319 317 317 317 315 312 312 316 314 313 313 314 312 312
306 308 309 309 309 311 304 306 311 304 301 303 306 306 307 307 309 309 310 311 309 308 304 302 303 306 307 311 314 312 313 317 315 314 314 314 312 314 316 315 314 316 312 315 312 306 311 311 310 311 310 311 311 310
309 315 311 313 315 312 309 306 305 305 305 304 307 308 307 307 306 307 307 310 305 302 300 306 309 313 316 317 313 317 315 314 310 310 310 312 313 312 311 312 313 311 309 308 307 308 306 307 307 308 307 308 308 309
315 310 315 317 312 311 308 311 307 308 306 305 306 308 306 304 305 304 310 304 305 308 312 312 311 308 309 311 310 312 313 316 318 310 306 309 309 310 309 309 309 308 308 307 307 306 306 305 306 306 306 306 305 307
312 312 315 314 308 303 302 312 305 306 303 304 306 304 304 304 306 309 303 307 309 317 313 316 315 317 313 314 312 310 311 311 308 307 308 307 309 309 308 309 308 306 305 305 306 305 305 302 304 305 306 306 305 305
306 311 308 308 309 302 311 306 309 307 306 304 304 301 304 307 310 304 300 305 309 311 307 311 309 307 307 310 304 304 306 306 305 306 306 304 304 305 307 306 306 306 306 305 304 303 304 304 302 305 305 304 304 303
301 301 306 295 311 307 303 304 304 304 301 303 301 302 305 308 302 299 298 299 304 305 306 308 307 306 304 304 304 304 307 302 301 301 303 304 304 304 303 304 304 303 304 302 301 301 302 303 303 303 303 302 301 301
296 308 301 306 307 304 304 301 302 302 302 301 302 306 307 305 298 294 296 298 300 304 304 305 304 304 303 303 301 300 301 302 301 299 301 303 303 301 300 299 298 299 301 301 301 300 301 301 301 301 301 300 297 300
299 306 313 316 312 310 308 308 308 306 302 301 303 304 304 295 293 297 302 304 303 306 307 306 305 304 302 302 302 302 301 301 300 299 301 303 302 301 299 296 295 296 299 300 299 299 298 298 297 297 297 298 298 298
312 312 306 310 310 310 305 304 303 301 302 306 305 299 297 296 295 301 303 307 308 308 306 306 306 304 302 301 301 300 299 299 298 298 298 299 299 298 298 298 298 294 298 298 297 298 297 296 295 295 295 295 296 297
311 312 309 306 307 307 307 304 302 305 307 306 303 299 297 300 304 306 308 308 309 307 305 302 303 303 301 300 300 299 298 297 294 291 290 290 292 293 296 297 297 297 297 297 293 294 295 295 295 295 295 295 295 295
309 313 306 308 305 303 305 308 307 308 308 306 305 304 304 305 309 312 310 310 305 303 303 302 301 299 297 296 296 296 298 297 295 292 288 288 290 293 295 294 294 295 295 295 295 295 294 294 293 294 293 293 292 292
311 309 306 307 306 308 310 311 310 309 309 307 307 305 303 305 309 311 306 305 304 303 301 300 299 298 297 296 295 294 293 296 295 294 292 292 293 293 294 294 295 295 295 295 294 294 293 292 292 291 291 290 290 290
310 307 305 304 307 311 312 311 309 306 307 304 305 307 307 305 303 304 306 305 302 300 298 300 298 297 298 298 298 297 294 296 294 293 292 292 292 293 293 294 294 294 294 294 293 293 292 291 291 290 290 289 290 290
309 308 308 307 307 307 312 311 310 307 307 304 305 307 304 303 298 302 307 306 303 301 299 299 300 300 300 299 297 297 296 295 291 288 287 287 286 288 292 293 293 293 292 292 292 291 291 290 290 290 290 290 290 290

GFSWCAN_sfc_thetae_027.txt.gz
Theta_e
310 310 310 310 309 309 310 310 310 309 309 309 309 309 309 309 309 307 303 308 301 292 293 296 296 293 293 293 289 294 292 293 294 290 289 289 287 292 295 298 298 297 294 295 298 294 293 318 316 309 316 320 322 322
310 310 310 310 310 309 310 310 310 310 309 308 308 308 308 308 308 308 301 309 305 297 294 300 301 301 299 298 295 296 294 295 295 291 294 295 293 297 295 293 302 296 300 299 302 304 316 319 319 322 325 322 322 320
309 309 309 309 309 309 309 309 309 309 309 308 308 308 308 308 308 307 303 305 301 294 294 295 295 301 303 302 303 292 295 297 298 300 295 296 293 300 294 297 302 306 310 305 307 313 314 316 321 323 329 328 329 331
309 309 309 309 309 309 309 309 309 309 309 308 308 308 308 307 308 306 302 305 301 295 289 291 302 299 304 304 303 302 299 301 301 300 297 295 294 303 297 300 299 306 307 306 307 313 317 321 320 322 327 329 326 325
309 309 309 309 309 309 309 309 309 309 309 309 309 308 307 308 308 306 304 304 305 295 289 291 297 302 304 302 302 303 301 299 298 294 295 293 299 300 302 303 300 306 302 305 306 310 311 309 314 323 324 325 324 322
309 309 309 309 309 309 309 309 309 309 309 309 309 309 309 308 308 302 297 306 307 304 293 287 298 299 305 305 305 302 302 299 300 298 296 297 301 301 297 296 302 307 311 314 312 314 312 312 313 315 315 313 316 317
309 309 309 309 309 309 309 309 309 309 309 310 310 310 309 309 304 299 296 303 305 303 294 290 290 302 304 306 305 300 302 303 300 297 294 295 296 303 301 295 302 306 314 316 316 316 310 312 310 314 314 316 316 317
309 309 309 309 309 309 309 309 309 309 309 310 310 309 309 309 307 301 304 306 306 300 297 288 289 296 304 300 298 303 300 301 300 298 298 296 303 303 296 301 305 310 313 314 317 317 314 315 314 314 315 313 313 315
309 308 308 308 308 309 309 309 309 309 309 309 309 310 308 304 300 306 308 306 305 299 291 291 287 289 304 301 303 301 302 295 300 294 296 299 298 295 301 302 305 308 310 312 316 312 313 313 313 315 315 314 313 312
308 308 308 308 308 309 309 309 309 309 309 309 309 305 302 308 311 308 302 297 296 296 294 288 294 290 299 301 299 299 301 296 291 293 300 297 295 303 307 308 308 309 310 311 308 308 310 310 310 311 313 315 315 316
308 308 308 308 308 309 309 309 309 309 309 309 303 301 306 311 307 302 296 291 293 290 293 294 297 293 304 298 298 303 298 296 286 292 295 292 292 299 307 308 310 310 312 311 311 312 313 312 311 312 313 316 317 317
308 308 308 308 308 308 309 309 308 308 307 304 302 307 306 305 298 293 292 295 294 293 300 299 301 303 304 307 299 301 297 296 290 302 293 289 295 304 306 307 309 311 312 311 311 310 311 314 316 314 313 313 316 317
307 307 307 307 308 308 309 309 309 309 309 311 305 303 302 299 289 286 286 288 292 300 303 303 298 304 305 305 300 300 295 294 303 294 288 293 301 305 307 309 310 311 312 314 314 316 317 317 318 317 316 317 317 317
307 307 307 307 308 309 309 308 309 310 308 304 301 290 297 293 294 292 293 296 300 302 302 304 301 300 303 301 302 297 300 297 291 288 288 295 302 306 308 310 311 310 312 312 314 315 315 315 316 317 317 317 316 315
307 307 307 309 309 309 309 308 309 312 309 305 302 292 297 301 303 303 305 303 305 307 305 305 305 305 302 301 301 298 293 288 289 289 297 302 305 308 308 310 311 311 311 311 312 313 314 314 314 314 316 316 317 316
307 307 310 309 309 309 308 310 315 314 314 306 304 299 303 301 301 303 303 303 309 306 307 306 302 298 296 297 293 291 290 287 292 298 303 307 307 308 309 310 311 313 311 312 314 315 313 312 313 312 313 314 313 315
306 306 310 309 308 308 311 311 317 311 306 304 301 306 305 305 303 304 306 306 310 305 299 301 296 295 299 291 290 294 292 296 300 303 305 308 308 309 310 311 313 312 310 310 313 310 310 312 316 314 311 312 312 315
307 311 310 308 307 310 317 314 310 306 301 304 302 305 307 307 305 306 309 310 307 305 303 300 303 296 294 292 295 300 301 304 305 305 308 307 308 312 313 310 313 313 311 310 313 311 310 311 309 308 312 312 310 312
306 307 307 307 308 306 309 310 312 302 303 305 307 307 308 308 311 310 309 309 310 310 306 303 299 296 297 301 302 303 304 306 305 307 309 310 312 311 312 313 314 314 312 310 309 310 309 307 305 306 306 308 307 308
307 308 309 310 309 309 306 309 317 306 301 304 309 305 307 307 309 308 307 308 306 304 300 299 299 301 302 305 307 307 308 310 308 305 307 310 311 311 314 311 311 311 309 309 307 304 305 304 304 304 304 304 303 304
312 314 313 314 315 313 310 307 306 307 306 304 306 307 307 308 305 305 304 308 303 301 300 304 304 306 307 305 304 304 305 312 310 308 308 308 309 311 311 311 311 309 306 304 304 303 302 302 302 303 304 303 303 305
316 312 315 319 313 312 310 315 308 312 308 306 307 307 306 303 303 304 308 302 302 305 306 307 307 306 304 304 303 303 304 307 307 304 303 306 305 305 305 307 307 305 304 303 302 302 302 303 302 303 303 303 303 304
312 312 314 315 309 302 301 316 308 309 304 305 307 305 305 304 307 310 302 305 306 309 309 310 311 311 308 309 305 303 303 302 302 303 303 303 304 305 305 304 303 301 300 301 302 301 301 300 302 303 304 303 303 302
308 311 309 309 309 301 312 308 311 308 308 305 304 301 304 307 309 303 299 300 302 306 306 306 306 305 305 305 301 300 300 300 300 301 301 301 301 303 301 300 299 299 299 300 300 300 301 301 300 302 301 300 300 300
300 302 304 293 311 309 305 304 304 304 302 304 301 302 301 303 299 297 296 298 302 304 305 305 305 305 302 301 300 300 300 299 297 297 299 301 300 300 298 299 297 296 298 298 297 298 299 300 298 298 298 299 298 298
293 309 300 307 308 304 305 301 302 303 303 302 303 306 308 301 296 293 297 300 302 303 303 302 302 302 300 300 298 297 297 298 297 295 296 298 297 295 294 293 292 293 297 297 296 295 296 295 295 294 294 295 295 296
300 306 312 316 309 307 306 309 307 304 300 300 303 302 302 294 292 296 302 305 303 307 309 306 304 301 299 298 299 299 298 297 296 295 297 297 296 295 295 293 292 293 297 296 296 296 294 293 293 293 293 294 295 294
309 308 302 307 309 310 304 303 301 299 300 304 304 298 296 295 294 301 304 308 308 308 308 307 306 301 299 299 298 298 297 296 296 295 295 295 295 295 295 295 295 293 295 296 295 295 294 293 293 293 293 292 292 293
307 307 306 306 306 306 304 302 301 302 304 303 300 297 298 303 305 305 308 309 310 308 303 301 299 300 298 299 298 297 296 294 291 287 287 287 289 291 294 294 294 294 294 295 293 293 294 293 293 292 292 292 291 291
308 309 308 306 304 302 305 307 304 306 306 305 304 303 304 305 308 311 310 306 303 300 300 300 299 297 295 295 294 295 295 294 292 289 286 286 288 292 293 293 293 293 294 294 294 293 293 293 292 292 291 291 290 289
312 309 308 307 305 308 309 309 309 309 308 306 307 304 303 305 307 310 308 305 303 301 299 298 298 297 296 294 294 292 291 293 292 292 291 291 291 292 292 293 293 293 293 293 292 291 291 291 290 290 290 289 289 289
310 306 305 304 306 311 312 310 308 306 306 305 305 306 306 305 302 305 306 304 300 298 298 298 297 296 297 297 296 296 295 293 292 292 292 291 292 292 292 292 293 292 292 292 292 291 291 290 289 289 289 289 290 289
309 308 309 306 308 308 311 311 308 307 307 305 304 305 304 302 297 302 306 305 302 299 298 298 299 299 299 297 296 296 295 294 292 289 289 288 288 288 291 292 292 292 292 291 291 291 290 290 290 290 290 290 290 290

GFSWCAN_sfc_thetae_030.txt.gz
Theta_e
310 310 309 309 309 309 309 310 309 309 309 309 309 309 309 309 309 301 297 300 296 292 293 295 294 291 291 289 285 288 290 290 287 287 289 286 283 286 288 295 295 295 294 294 295 293 290 313 314 301 306 316 318 317
310 310 310 310 310 310 310 310 310 310 309 308 308 308 309 308 308 307 298 302 302 295 292 297 297 299 297 296 290 288 290 292 293 287 289 290 290 291 289 289 301 293 298 297 299 300 308 310 317 323 325 323 324 324
310 310 310 310 310 310 310 310 310 310 309 309 309 309 309 308 308 306 297 298 299 294 293 290 291 297 300 299 300 290 292 295 293 296 290 290 288 295 289 293 298 303 306 302 303 306 310 310 315 323 323 322 323 325
310 310 310 309 309 310 310 310 310 310 310 310 309 309 309 309 308 307 297 298 300 295 287 288 298 294 299 298 298 298 296 299 299 297 290 288 288 296 292 295 298 303 306 303 304 309 312 313 312 317 322 323 322 322
309 309 309 309 309 309 309 309 309 310 310 310 309 310 310 309 309 305 301 301 303 295 288 289 295 296 297 299 299 299 297 295 295 289 290 290 296 295 299 300 299 304 301 302 304 309 310 309 313 316 314 315 318 319
309 309 309 309 309 309 309 309 309 310 309 310 310 309 310 310 309 297 293 302 304 302 293 285 295 294 299 302 300 295 296 296 295 292 292 295 297 296 293 295 302 307 309 310 310 313 310 313 314 314 313 315 316 316
308 308 309 309 309 309 309 309 310 310 310 310 310 310 310 309 304 296 294 301 305 302 292 288 288 297 302 299 299 295 298 298 297 296 292 292 296 298 298 293 302 304 309 315 316 313 308 311 310 315 315 316 317 317
308 308 308 309 309 309 309 309 310 310 310 310 310 310 310 309 307 301 303 305 305 298 296 288 288 292 302 297 296 300 298 298 298 296 297 295 298 300 294 299 302 307 312 315 314 315 311 313 315 315 316 316 315 314
308 308 308 308 308 309 309 309 309 310 310 310 310 310 306 301 298 302 308 307 304 298 290 289 286 287 301 298 300 300 299 292 298 294 295 297 296 294 299 303 304 309 309 312 314 314 313 312 312 313 314 315 314 314
308 308 308 308 308 308 308 309 309 310 309 310 306 301 297 303 311 308 302 297 295 295 294 286 290 287 296 298 297 297 299 294 290 292 297 295 294 302 305 306 308 309 310 313 309 307 309 309 312 313 313 315 315 315
308 308 308 308 308 308 308 309 309 309 309 301 295 295 301 311 305 301 295 292 293 289 290 289 292 291 300 294 294 300 295 292 286 292 293 289 291 299 305 307 310 311 311 311 312 312 312 311 311 313 314 315 316 317
308 308 307 307 308 308 308 309 309 303 301 300 300 303 301 302 295 291 289 292 293 291 297 295 299 299 302 305 298 299 293 294 289 300 291 286 296 303 306 307 309 311 312 312 312 313 315 316 315 314 315 315 316 317
307 307 307 307 307 308 308 309 309 308 307 302 299 299 298 295 289 286 285 289 290 297 301 302 299 302 303 302 299 298 294 293 301 290 286 292 299 304 306 309 310 312 314 314 314 315 316 316 316 314 313 312 313 314
307 307 307 307 307 308 309 309 309 307 302 298 295 289 292 292 294 295 297 297 301 300 301 301 300 300 302 301 301 295 295 295 289 286 287 295 302 306 308 310 310 311 312 313 313 314 313 313 313 314 313 312 311 310
307 307 307 306 309 309 309 308 309 304 302 297 295 290 295 298 300 303 304 302 304 303 301 300 301 300 297 297 297 296 292 287 287 288 297 303 305 306 307 308 308 309 310 310 310 310 310 311 309 309 309 311 312 313
307 306 306 309 309 308 308 308 308 306 305 299 300 298 300 297 299 302 302 302 306 304 302 300 297 296 294 294 292 290 288 286 293 299 303 305 306 307 307 309 308 307 308 307 307 308 308 310 307 306 307 308 310 309
307 301 308 309 308 307 309 306 307 306 300 302 298 300 299 299 299 300 301 302 306 303 297 298 295 294 298 294 291 294 292 296 300 302 304 305 306 307 307 309 308 308 307 305 305 305 305 304 304 306 306 305 311 311
301 305 308 307 307 306 306 307 303 302 300 300 296 299 300 300 300 301 302 303 301 301 301 298 301 295 294 292 293 299 301 303 305 305 306 307 307 308 308 307 310 306 306 306 302 301 301 300 299 300 302 303 307 307
303 305 307 308 306 302 303 303 303 298 300 301 300 302 302 301 303 305 304 304 303 300 299 298 294 292 293 297 298 300 303 304 303 304 304 307 308 309 308 307 306 304 302 301 300 299 299 297 297 300 301 301 299 302
307 308 309 310 309 303 302 300 305 299 299 301 302 300 301 300 302 303 303 302 300 297 295 292 294 298 295 294 295 297 301 306 303 298 302 305 305 305 304 304 303 300 300 298 298 298 298 298 298 298 298 298 299 298
309 310 311 309 307 305 302 298 298 299 300 298 299 300 299 301 300 300 300 300 299 297 294 296 294 296 299 297 297 297 296 299 298 298 296 297 300 300 303 302 301 300 298 297 296 296 297 295 295 297 297 297 298 297
308 312 308 312 306 305 302 303 299 301 300 300 299 300 297 296 296 298 299 298 297 298 300 299 298 298 296 295 294 295 295 296 296 296 297 298 296 296 296 297 296 295 295 295 294 295 296 296 298 299 298 298 298 298
309 309 307 309 303 296 297 305 301 300 297 298 301 298 299 298 298 300 294 295 298 302 300 299 299 300 298 295 294 294 294 294 293 294 294 296 296 295 294 294 295 295 294 295 297 297 296 296 297 297 296 297 296 296
309 304 303 302 301 296 305 301 303 300 301 299 300 298 298 299 303 297 294 293 296 299 298 298 298 297 296 293 292 293 293 293 292 292 294 293 292 291 291 291 291 292 292 292 294 295 293 293 293 293 293 294 294 295
296 297 300 291 303 301 301 300 299 298 296 300 295 295 297 298 294 294 293 293 295 296 296 296 297 297 291 290 289 290 290 290 289 289 291 291 289 290 289 289 289 290 291 290 290 290 290 290 291 291 291 292 291 292
293 303 297 302 299 298 298 299 299 298 298 297 300 300 298 298 295 292 294 298 299 300 295 295 295 292 290 289 287 288 287 289 289 288 287 289 289 288 286 286 286 288 290 289 289 290 289 289 289 290 290 290 290 290
296 299 303 309 304 302 299 301 301 297 296 295 298 297 295 291 292 293 299 301 301 303 303 300 297 291 290 289 289 289 288 289 287 285 287 287 289 288 287 285 285 286 289 291 290 289 289 289 289 289 288 288 288 288
304 305 300 301 306 305 298 297 296 294 294 296 297 293 292 292 291 296 298 301 304 300 298 293 292 292 291 290 289 288 287 287 288 287 286 287 287 288 288 288 289 291 290 290 289 289 289 288 288 288 288 286 286 288
303 304 302 301 302 300 299 297 296 296 298 297 294 293 293 297 299 299 301 302 304 299 292 290 290 290 290 291 290 288 287 286 284 283 282 281 282 284 287 288 288 289 289 289 291 291 291 289 288 288 288 286 286 286
305 305 303 303 300 297 299 300 298 300 299 298 299 297 297 298 301 303 302 301 293 291 291 291 290 289 287 287 286 285 286 286 285 283 281 281 282 285 286 286 287 287 287 288 287 287 290 288 288 287 286 285 285 284
307 306 305 304 301 302 302 303 303 302 301 300 300 298 297 298 301 303 302 296 293 292 291 290 289 289 288 287 286 285 283 285 286 286 285 285 285 286 286 286 286 287 287 287 286 286 286 285 285 285 285 286 286 286
304 302 300 300 301 305 305 303 302 301 301 300 299 301 300 299 297 297 297 295 292 290 293 291 289 289 289 289 289 288 289 287 287 287 286 286 285 286 286 286 286 287 287 287 287 287 287 286 286 286 285 286 286 287
304 303 303 302 302 303 305 305 303 301 303 302 300 301 301 297 293 295 297 297 294 291 291 291 292 292 291 290 290 290 290 288 289 289 289 288 288 286 285 285 286 287 287 287 287 287 287 287 286 286 287 287 287 288

GFSWCAN_sfc_thetae_033.txt.gz
Theta_e
310 310 310 310 310 310 310 310 310 309 309 309 309 309 309 309 309 302 298 299 296 291 291 293 294 290 289 290 286 286 286 289 284 284 285 286 284 286 284 288 288 290 291 288 289 290 287 310 311 306 308 317 316 313
310 310 310 310 310 310 310 310 311 310 310 310 309 310 310 309 309 306 297 302 302 295 292 295 296 297 296 294 289 287 286 286 289 286 286 287 285 288 285 283 293 289 295 292 295 296 305 309 313 315 317 318 321 316
309 309 310 310 310 310 310 310 310 310 310 310 310 310 310 310 310 307 300 299 295 293 293 291 290 296 298 297 299 290 291 293 291 296 292 289 287 289 286 287 290 296 300 298 301 306 309 313 315 315 316 318 321 325
309 309 309 309 310 310 310 310 310 310 310 311 311 310 310 310 310 309 300 299 299 294 288 288 296 292 297 297 297 297 295 294 297 297 291 288 287 293 288 291 288 295 299 297 301 307 310 314 314 314 318 318 320 321
309 309 309 309 309 309 310 310 310 310 311 311 311 311 310 310 310 308 304 302 302 294 289 289 295 295 296 295 295 296 294 293 292 291 290 289 293 292 292 292 290 298 299 297 297 308 308 310 314 315 315 315 316 318
308 308 308 309 309 309 309 310 310 310 310 311 311 311 311 310 310 300 293 300 302 302 292 286 291 293 295 298 299 295 294 293 293 291 290 293 298 293 286 286 298 304 306 308 306 312 311 313 315 317 314 316 318 319
308 308 308 309 309 309 309 309 310 310 310 310 310 310 310 310 305 296 294 301 305 302 292 288 289 296 299 298 297 293 294 293 293 293 293 293 294 295 288 286 298 304 306 309 312 312 309 312 312 316 316 316 316 317
308 308 308 309 309 309 309 309 309 309 310 310 310 311 310 309 307 302 305 306 305 298 295 286 288 292 301 295 295 300 297 297 298 297 297 294 295 295 289 300 304 307 308 312 312 314 313 314 315 316 315 316 315 314
308 308 308 308 308 308 309 309 309 309 310 310 311 309 305 303 298 300 310 307 305 298 288 287 285 287 300 297 299 299 299 292 299 294 294 295 294 292 299 301 304 309 310 310 311 313 313 312 313 314 314 314 312 312
308 308 308 308 308 308 308 308 309 309 309 309 303 300 296 299 310 309 302 296 295 295 293 285 288 286 295 297 295 297 298 293 287 290 297 292 291 299 303 306 308 311 312 312 309 308 310 312 313 313 313 314 314 312
307 307 307 308 308 308 308 308 309 309 306 299 294 295 299 308 305 301 293 292 291 285 286 288 289 288 298 292 294 298 293 291 285 293 291 288 288 299 305 308 310 312 313 313 313 312 311 311 311 312 313 314 314 314
307 307 307 307 308 308 308 308 309 304 299 300 302 304 299 301 296 292 291 293 291 289 296 292 296 295 299 301 297 298 292 293 287 298 289 285 292 302 304 308 310 311 312 313 315 314 315 314 313 312 314 314 315 315
307 307 307 307 307 308 308 309 309 309 306 301 298 299 295 295 292 288 287 292 295 299 300 300 299 302 303 302 299 298 293 291 298 288 284 291 302 305 307 309 311 313 314 314 314 315 315 314 315 313 311 311 314 315
307 307 307 307 307 308 309 309 309 306 301 298 294 290 291 291 296 296 297 298 302 301 300 300 299 297 301 298 299 294 294 294 288 285 288 299 303 305 307 309 310 310 311 312 312 312 312 311 310 311 311 310 312 314
307 307 307 306 309 309 309 308 309 303 301 296 296 289 294 298 299 300 301 301 303 304 300 299 299 299 295 294 296 294 291 286 288 288 298 302 304 305 306 306 306 305 305 306 307 308 307 307 307 308 310 311 312 313
308 306 305 308 309 308 308 307 307 305 302 302 301 297 299 296 297 298 298 298 304 304 301 300 297 296 294 295 292 290 288 287 294 299 302 304 304 305 305 305 302 302 301 301 300 301 301 302 304 306 308 308 308 309
307 300 307 308 308 308 307 305 304 303 302 302 299 299 297 296 295 296 298 298 302 302 297 298 294 293 298 292 292 296 293 297 301 302 304 304 303 304 306 304 302 301 299 299 299 299 299 300 301 301 301 304 304 305
299 302 307 307 307 304 304 305 302 301 300 298 296 298 297 298 298 298 299 300 297 296 298 296 298 292 289 289 292 297 299 301 303 303 304 304 305 306 305 303 301 299 298 297 298 299 298 298 298 299 299 300 301 302
303 304 307 308 306 302 302 302 302 298 297 298 299 299 298 298 301 301 301 301 300 297 294 292 292 290 290 293 292 294 296 298 299 301 300 300 302 302 301 299 298 297 297 296 295 295 297 296 294 297 299 300 299 299
307 309 310 310 307 302 299 298 302 298 296 297 298 298 297 297 297 300 300 300 297 294 291 291 292 295 293 290 292 294 293 294 292 293 294 295 297 296 295 295 295 295 296 296 297 296 296 296 296 296 297 296 296 295
306 309 310 307 306 304 299 296 296 297 297 296 297 297 297 298 296 297 297 299 296 294 292 293 295 295 295 293 290 291 292 291 288 289 289 291 293 294 294 294 295 295 294 294 294 294 295 293 294 296 297 296 295 295
304 310 306 309 305 303 300 300 298 298 299 300 299 299 296 295 294 295 295 293 293 297 298 295 294 292 290 290 290 289 289 291 292 294 294 293 290 290 291 292 293 292 293 293 292 290 291 292 293 294 294 294 296 296
307 307 305 306 301 295 296 302 299 298 297 296 302 299 298 298 298 298 291 293 295 297 298 297 295 293 289 290 291 290 289 289 289 289 290 289 289 288 289 291 292 291 290 290 291 290 289 291 291 291 291 292 293 294
308 303 301 300 300 296 303 299 300 298 298 296 294 294 298 298 298 292 289 290 293 294 293 292 293 289 288 288 286 286 287 287 287 287 287 287 286 286 286 286 287 288 288 288 288 288 288 288 290 290 291 291 289 288
295 296 298 290 298 297 298 297 297 296 295 296 295 293 295 296 292 293 293 291 293 294 293 292 290 288 286 285 285 285 286 285 284 285 285 285 285 286 285 285 285 286 287 287 286 287 286 287 289 289 289 288 288 288
292 301 296 299 296 295 295 295 296 295 294 295 297 299 296 296 291 287 289 293 299 300 298 296 291 287 285 285 284 283 284 284 284 284 284 284 284 284 283 283 282 285 287 286 286 287 287 288 288 287 287 287 289 288
292 296 299 303 300 298 296 296 297 294 292 292 294 296 292 288 288 291 294 297 301 302 298 294 290 288 286 284 285 285 284 283 284 284 284 284 284 284 284 283 283 284 286 288 287 288 287 287 286 286 285 285 286 287
300 301 298 299 300 301 295 294 293 292 292 294 294 291 291 291 290 294 296 298 299 296 289 288 287 288 287 286 285 284 284 283 284 284 283 284 284 284 284 285 285 290 287 288 287 287 287 287 286 286 285 284 284 285
301 301 299 298 300 298 297 295 294 294 295 295 293 291 292 295 297 297 298 298 295 291 288 287 286 286 286 285 284 283 283 283 282 281 280 279 281 283 284 285 285 285 285 285 289 289 288 287 286 286 285 284 284 284
303 301 299 301 298 296 298 297 296 297 296 296 296 295 296 296 298 300 299 294 290 289 288 287 286 285 284 283 282 282 283 283 282 282 280 280 281 282 283 284 284 284 284 285 285 285 289 286 286 286 286 284 284 284
303 302 302 301 299 300 301 300 299 300 299 297 297 295 295 296 298 300 298 291 289 289 288 287 286 285 285 284 283 282 281 284 283 284 283 283 283 283 284 284 284 284 285 285 285 285 284 284 284 284 285 285 286 286
302 301 299 298 298 300 301 299 299 298 297 296 296 298 298 298 295 296 292 290 289 288 290 288 287 286 287 286 287 286 288 285 285 285 285 284 284 284 284 283 284 286 286 286 286 285 286 285 285 285 285 285 285 286
299 299 299 300 299 298 300 301 300 299 298 297 297 299 299 298 293 293 293 291 290 289 289 288 288 288 288 288 287 286 287 286 287 288 288 288 287 286 284 283 284 286 285 286 286 286 286 286 286 286 285 286 285 285

GFSWCAN_sfc_thetae_036.txt.gz
Theta_e
310 310 310 310 311 311 310 311 311 311 311 310 310 310 310 310 310 304 299 300 297 292 292 292 293 290 289 289 285 284 284 286 288 284 282 284 284 283 282 284 284 283 283 283 284 284 282 307 308 304 306 312 316 316
309 309 310 310 310 310 310 310 310 310 311 312 311 311 311 311 310 309 298 301 302 295 293 297 296 297 295 294 291 290 287 286 287 286 286 286 285 285 284 281 290 284 289 288 288 287 298 308 308 312 314 314 316 318
309 309 309 309 309 310 310 310 310 310 311 311 311 311 311 312 311 309 301 301 298 293 292 288 290 295 297 297 298 289 291 292 291 292 288 287 284 288 281 284 288 292 294 293 294 297 301 308 313 314 315 315 317 320
309 309 309 309 309 309 309 310 310 310 311 311 311 311 312 312 311 310 303 301 300 294 286 288 296 291 295 296 296 296 294 293 292 295 291 288 287 291 286 287 288 290 291 289 294 298 305 311 311 313 316 318 318 323
308 308 309 309 309 309 310 310 310 310 310 311 311 311 312 312 311 308 306 303 303 293 287 289 294 295 294 293 294 294 293 291 289 290 290 288 292 290 292 291 287 292 290 289 291 299 303 307 311 316 316 316 320 322
308 308 308 309 309 309 309 309 309 310 310 310 311 311 311 311 310 302 294 300 304 301 291 286 293 292 294 293 292 293 294 293 292 290 289 292 296 292 284 285 292 296 298 300 298 305 308 312 314 317 316 317 320 322
308 308 308 308 309 309 309 309 309 309 309 310 310 310 311 310 304 297 295 301 304 302 291 286 288 296 296 296 297 295 295 293 292 291 291 291 292 294 286 284 293 296 298 298 302 305 308 312 310 315 317 317 319 321
308 308 308 308 308 309 309 309 309 309 310 310 310 311 310 309 307 301 305 306 305 298 294 286 288 291 294 294 295 296 291 293 294 292 295 293 294 292 284 291 294 297 298 299 302 309 313 315 315 315 317 317 316 315
308 308 308 308 308 308 308 308 309 309 309 310 310 310 305 303 299 300 309 309 305 297 287 287 285 285 299 294 297 298 298 292 298 293 294 293 290 286 291 294 298 303 306 310 312 313 313 313 313 314 314 314 313 314
307 307 307 308 308 308 308 309 309 309 309 309 301 298 295 299 309 307 301 295 294 294 290 285 288 286 294 296 295 296 296 291 287 290 296 291 287 295 298 303 306 309 312 313 309 308 311 311 312 312 312 313 313 316
307 307 308 308 308 308 308 308 309 309 306 298 295 294 300 306 305 300 293 291 289 285 286 288 289 288 297 291 294 296 291 289 285 291 288 287 287 296 305 310 312 313 313 312 313 312 312 312 312 313 313 315 316 318
307 307 306 308 308 308 308 309 309 306 299 302 302 305 300 299 297 294 292 294 293 291 293 291 294 292 296 299 296 297 292 292 286 295 288 285 297 304 307 308 310 311 313 313 314 312 313 313 313 313 313 315 315 316
306 306 307 308 308 308 309 309 309 309 306 302 297 295 295 297 292 289 287 291 294 300 301 300 299 302 303 302 298 297 292 290 297 288 285 295 301 304 305 307 307 310 312 311 310 311 311 311 312 312 313 315 315 314
306 307 308 308 308 309 309 309 309 305 302 297 294 289 292 292 295 294 294 295 300 301 301 300 298 297 298 295 296 293 294 294 288 285 288 297 301 301 303 304 304 303 306 307 307 308 308 309 309 312 314 315 315 313
307 307 307 307 308 309 309 308 309 303 301 296 298 289 292 298 298 298 299 299 301 302 300 298 297 296 294 294 296 293 291 285 289 290 296 300 302 301 299 299 299 299 299 300 302 304 306 306 305 306 308 311 313 312
308 307 304 308 308 309 308 306 306 304 301 300 298 293 296 295 295 296 296 295 299 300 301 300 296 295 294 295 292 290 288 287 293 298 301 302 301 300 299 298 298 299 299 299 300 301 301 301 302 303 303 304 306 306
307 299 307 307 308 308 307 304 303 302 300 299 295 296 294 293 292 293 296 295 298 297 295 296 291 291 295 291 289 292 290 293 298 298 299 301 300 299 298 296 297 297 298 298 298 299 300 301 301 301 299 301 303 302
299 301 307 308 307 304 305 302 302 300 297 296 293 295 295 295 294 296 297 299 294 292 294 292 294 289 288 286 286 290 293 295 298 297 296 296 298 297 297 295 296 296 296 296 297 297 297 297 297 298 300 301 300 300
302 305 307 309 308 302 301 301 301 296 296 296 297 296 295 295 297 298 299 299 297 294 292 290 288 286 287 291 291 291 291 291 293 297 293 294 294 294 294 295 295 295 295 295 295 295 296 295 295 296 297 298 296 297
307 308 309 310 307 300 297 297 300 297 294 296 296 296 294 294 295 298 298 298 295 292 289 288 290 292 293 290 289 289 290 291 290 290 290 291 292 293 293 294 293 293 294 295 295 295 295 296 296 296 296 295 295 295
306 308 309 307 306 300 298 295 296 296 296 295 295 295 295 297 294 294 294 295 293 291 289 290 291 291 290 289 288 287 288 289 288 288 288 287 289 290 291 292 293 293 291 290 290 290 291 291 293 295 295 294 293 293
303 309 305 308 303 301 299 298 297 297 298 297 300 300 296 296 293 294 293 292 291 292 292 291 290 288 288 288 287 287 287 289 289 289 290 288 287 288 289 289 290 289 290 289 289 289 289 290 292 293 294 294 293 292
306 305 304 305 300 295 295 300 297 296 294 294 296 294 296 298 296 295 290 290 291 293 292 292 291 289 287 287 288 287 287 287 286 285 287 286 286 286 287 287 288 288 288 288 288 288 289 290 291 292 292 291 291 290
306 302 300 299 299 294 300 297 298 296 296 294 293 291 293 294 295 291 291 291 292 295 293 291 289 287 286 287 285 284 285 285 285 285 285 285 285 285 285 286 286 287 287 288 288 288 288 289 290 290 290 289 289 288
295 296 296 288 296 296 296 296 296 295 293 295 292 292 293 293 290 288 287 290 292 296 292 290 288 287 285 284 284 284 285 284 284 284 284 284 285 285 285 286 286 286 287 288 287 288 288 289 289 290 290 289 288 287
291 298 295 297 295 294 294 293 294 294 293 294 294 296 294 292 289 287 288 291 294 298 296 293 288 285 285 284 284 284 284 284 284 284 284 283 284 284 284 283 284 285 287 287 288 289 288 288 288 288 288 289 288 288
290 294 297 301 299 296 294 294 295 292 291 291 292 293 291 287 287 290 293 294 296 297 297 296 290 287 285 284 284 285 284 284 285 285 284 284 285 285 285 284 284 285 287 289 290 290 288 288 287 287 287 287 288 288
298 299 297 297 298 299 294 293 292 290 291 292 293 290 289 290 289 293 295 297 299 292 288 287 287 287 286 285 285 285 285 284 285 284 284 285 285 285 285 286 286 288 288 289 289 289 289 288 288 287 287 286 286 287
300 300 299 296 299 297 296 294 292 293 294 294 292 290 292 294 296 296 297 298 295 288 287 287 285 285 285 284 284 284 284 284 285 283 282 281 282 284 285 286 286 286 286 288 289 290 290 288 288 288 287 287 287 288
301 300 297 299 297 295 297 297 295 295 295 296 296 295 295 296 298 299 298 291 290 288 288 287 285 285 284 284 284 285 285 284 284 284 282 283 283 284 285 285 286 285 286 287 287 288 289 289 288 289 288 288 289 289
302 300 299 299 298 299 300 299 299 299 298 296 297 295 295 297 298 299 299 294 289 289 287 286 286 286 285 284 284 284 284 285 285 286 286 285 285 285 286 286 286 287 288 288 288 288 287 287 287 287 287 288 288 288
301 299 299 297 298 299 299 298 297 297 297 297 297 297 298 298 296 297 293 290 289 288 290 288 287 287 287 287 287 286 288 286 286 287 288 286 286 286 286 286 287 288 288 288 288 288 288 287 287 287 287 288 288 288
299 298 298 299 297 297 298 299 297 297 297 295 296 298 299 299 296 296 294 292 291 290 289 289 289 289 289 289 289 289 288 288 288 288 288 288 287 287 286 286 287 288 288 288 288 288 288 288 288 288 287 287 287 287

GFSWCAN_sfc_thetae_039.txt.gz
Theta_e
309 309 310 310 310 310 310 310 310 311 311 311 311 311 312 312 311 308 302 303 298 292 293 295 294 291 291 290 285 290 289 290 290 284 284 286 285 288 287 289 288 288 287 286 286 284 282 301 304 299 311 318 319 321
309 309 309 310 310 310 310 310 310 310 311 312 311 311 312 312 312 311 301 303 303 295 293 299 299 300 297 295 292 292 290 290 292 289 289 288 286 289 287 283 294 287 291 291 291 290 299 303 304 309 314 315 317 322
309 309 309 309 309 310 310 310 310 310 311 311 311 311 312 312 312 311 303 301 300 295 294 294 294 299 302 301 301 289 292 293 292 296 292 290 285 290 283 286 290 294 299 294 294 296 299 302 307 310 312 318 322 324
308 309 309 309 309 309 309 310 310 310 310 311 311 311 311 312 312 312 305 302 300 294 287 291 300 297 301 301 300 299 296 297 297 297 290 288 287 293 289 291 291 293 296 294 293 296 299 301 305 310 310 318 321 325
308 308 308 309 309 309 309 309 309 310 310 310 311 311 311 312 311 311 308 304 303 294 289 290 298 300 300 299 298 298 296 294 292 290 289 288 291 291 292 292 288 294 293 291 290 298 299 303 309 313 313 317 321 325
308 308 308 308 308 309 309 309 309 310 310 310 311 311 311 311 310 304 297 304 305 301 292 286 297 297 299 298 297 296 295 294 293 290 289 291 295 293 287 287 294 297 299 300 298 302 302 305 305 308 314 318 324 320
308 308 308 308 308 309 309 309 309 309 310 310 310 310 311 310 307 300 296 302 305 303 292 287 288 298 300 300 296 294 295 293 292 291 289 290 293 293 288 285 293 297 299 300 301 302 300 302 304 313 319 320 320 323
308 308 308 308 308 308 309 309 309 309 310 310 310 310 310 309 307 302 305 305 305 298 294 287 288 293 301 297 296 297 292 293 292 291 292 290 292 290 284 293 297 297 298 298 300 302 303 304 307 316 318 319 318 321
307 307 308 307 307 307 307 308 309 309 310 310 310 309 307 305 301 302 309 307 305 297 288 287 286 287 298 296 300 298 294 289 295 288 291 292 286 284 289 291 294 297 297 299 303 304 303 303 308 313 316 319 317 319
307 307 307 307 307 307 307 308 309 309 309 307 307 302 300 303 310 308 302 296 294 294 290 285 288 286 293 295 295 295 295 288 286 289 294 287 285 292 304 304 300 301 303 305 306 305 307 309 311 313 315 317 318 318
307 306 307 306 306 307 309 309 309 309 307 306 302 300 304 307 305 302 294 292 289 287 288 288 290 288 297 291 293 296 291 288 285 291 288 286 289 296 303 304 310 312 313 313 314 313 313 314 314 316 316 317 317 319
306 306 306 307 308 308 309 309 309 308 306 304 304 306 304 305 301 297 294 296 295 294 297 292 296 293 296 299 296 299 294 293 288 297 289 285 294 297 298 301 303 307 307 310 313 312 314 314 316 317 318 319 320 320
306 306 307 307 308 309 309 309 309 309 307 307 304 302 301 301 290 287 285 290 293 300 303 302 300 303 304 304 301 300 293 292 300 290 285 292 297 298 298 300 301 303 305 306 308 311 313 314 316 315 313 313 313 312
306 307 307 308 308 309 309 309 309 308 309 304 301 290 295 292 293 293 293 294 300 302 300 302 302 300 301 299 299 293 296 295 290 285 286 293 297 298 299 300 301 301 302 302 303 305 306 307 310 312 311 312 312 310
307 307 308 308 308 309 309 309 309 312 310 303 301 291 296 300 299 299 302 300 301 300 302 302 303 302 299 298 297 294 293 286 287 287 293 297 299 299 298 298 299 301 301 301 302 303 303 304 305 306 308 308 308 308
308 308 308 308 309 309 308 310 313 313 310 305 302 298 300 297 296 297 297 297 301 300 306 303 298 296 295 294 291 287 288 285 290 294 297 300 299 298 299 299 298 299 299 299 300 303 304 304 304 304 305 305 304 304
307 308 307 308 308 308 308 313 314 307 304 302 300 303 301 299 297 298 299 299 302 300 298 297 291 290 295 290 288 288 286 290 294 297 298 297 297 297 298 299 299 300 300 300 300 301 302 302 303 303 300 303 303 303
306 308 308 308 309 309 313 311 309 305 300 303 299 300 302 302 300 300 301 302 299 298 297 294 295 289 288 286 288 293 294 295 296 298 295 297 298 299 299 298 299 299 300 301 301 302 302 303 302 302 303 302 301 301
307 308 308 309 309 310 308 307 309 301 302 305 304 304 303 303 303 304 303 303 302 301 298 295 290 288 289 293 293 294 294 294 295 297 296 297 298 298 298 299 300 300 299 299 299 299 300 300 300 301 302 302 300 301
307 308 309 310 309 308 304 305 308 304 301 302 305 303 303 301 302 302 302 301 299 297 294 291 290 293 294 295 295 294 294 295 296 296 295 296 296 297 297 297 296 298 298 299 299 297 300 301 300 299 299 299 298 298
310 312 311 313 313 308 305 304 304 304 304 305 305 304 304 306 302 299 299 302 297 295 292 296 295 295 296 296 295 295 295 295 293 293 293 294 295 296 296 296 297 296 296 296 296 296 297 297 298 299 298 296 297 297
311 309 313 314 310 308 307 306 306 306 304 305 306 306 304 302 302 301 302 298 297 300 301 297 296 295 295 295 294 294 295 296 296 294 293 293 293 293 294 295 295 294 294 294 295 295 296 298 298 298 297 296 295 295
309 310 312 311 307 301 301 308 304 304 301 303 304 302 302 303 303 303 298 300 301 302 302 299 297 296 295 295 296 295 295 294 293 292 293 293 293 293 294 294 294 293 293 293 295 295 296 294 295 297 296 296 295 295
308 309 307 305 304 300 307 304 305 304 305 302 301 299 300 302 304 299 296 299 302 302 300 299 296 295 295 296 293 293 293 293 293 293 292 292 292 292 293 293 294 294 294 294 295 295 295 295 293 295 295 294 294 293
300 301 302 293 303 302 301 301 301 301 298 301 299 299 301 303 297 295 295 298 301 303 303 299 297 295 294 294 294 294 293 292 291 290 291 292 292 292 292 293 293 293 294 294 293 293 293 294 294 293 293 292 292 291
295 305 300 304 303 301 300 297 298 299 298 299 300 303 303 299 294 292 297 300 302 304 304 303 300 296 294 294 293 293 292 293 292 291 291 291 291 290 290 290 290 292 294 294 295 293 292 292 292 291 291 290 289 290
296 301 306 309 307 304 302 302 302 299 296 297 300 299 298 292 292 297 303 303 304 307 304 301 302 298 296 293 293 293 293 293 292 291 292 292 292 292 291 289 289 291 293 294 295 293 292 291 291 291 291 291 291 291
306 307 303 305 305 307 300 299 297 296 297 300 300 295 294 294 294 302 303 306 307 306 298 296 297 297 295 294 293 293 293 293 292 292 292 293 294 293 292 293 293 289 293 295 294 294 293 292 291 291 291 290 291 293
307 308 307 303 304 304 303 302 300 301 302 302 299 297 299 303 305 304 305 306 306 302 297 296 293 294 293 293 293 293 294 293 291 289 287 287 288 290 292 293 292 293 294 295 289 291 293 293 292 292 292 292 293 294
307 308 304 303 303 301 305 306 304 303 304 305 304 303 303 304 305 307 304 301 301 301 299 297 295 294 294 293 293 292 293 293 293 291 289 288 289 291 292 292 293 293 293 294 294 293 290 293 292 294 293 293 293 293
308 307 305 305 305 307 308 307 306 305 304 304 304 301 303 304 305 305 305 306 304 299 296 295 294 294 294 293 293 293 292 293 293 292 293 293 293 293 292 292 293 294 294 293 293 293 292 292 292 292 291 291 292 291
307 307 305 303 305 306 305 305 305 303 303 302 303 303 304 303 302 304 300 298 296 296 295 296 295 296 296 297 296 296 289 295 294 294 293 293 293 293 293 293 294 294 294 293 293 292 292 291 290 290 290 290 291 291
307 306 306 305 304 302 305 304 303 303 304 302 302 303 304 303 301 303 301 299 299 299 299 298 298 297 297 296 296 296 292 296 293 289 288 288 288 289 292 293 294 294 293 292 292 292 291 291 291 290 291 291 291 291

GFSWCAN_sfc_thetae_042.txt.gz
Theta_e
310 310 310 310 310 310 310 311 311 311 312 312 311 311 311 312 313 310 305 305 299 292 294 297 297 293 293 292 287 292 291 293 293 289 289 289 288 291 290 292 291 292 290 289 291 289 287 303 303 300 310 314 316 318
310 310 310 310 310 310 310 310 311 311 311 311 311 311 311 312 312 312 304 304 304 295 295 301 301 302 300 298 293 293 292 293 294 290 293 294 290 292 291 287 297 290 294 293 294 293 302 304 304 309 311 310 312 314
309 309 309 309 309 310 310 310 310 311 311 311 310 311 312 312 312 311 306 302 301 296 295 296 298 305 306 304 304 291 294 295 296 299 295 293 288 293 288 290 292 296 299 295 296 299 301 304 307 309 309 309 311 314
309 309 309 309 309 309 310 310 310 310 311 310 310 311 312 312 312 312 307 303 302 295 289 295 304 301 305 304 303 303 299 299 298 297 293 292 289 296 292 294 293 297 299 296 296 300 302 303 306 307 308 308 308 311
309 309 309 309 309 309 309 310 310 310 309 310 310 311 312 312 311 314 312 306 305 297 291 293 301 304 304 304 303 301 299 296 294 291 291 289 293 293 295 294 293 298 296 293 293 301 301 303 306 308 309 312 313 314
308 309 308 308 308 309 309 309 309 309 309 310 311 311 311 311 310 311 303 306 307 303 294 290 301 300 303 302 300 300 299 297 295 292 290 292 296 293 288 291 297 300 301 301 300 303 304 306 308 308 308 309 311 312
308 308 308 308 308 309 309 308 308 309 309 310 311 311 311 310 312 306 302 305 306 305 293 290 294 301 302 302 301 297 298 295 293 289 288 290 291 292 288 285 294 299 301 302 304 304 301 304 304 308 309 311 312 317
308 308 308 308 308 309 308 308 309 309 310 311 311 310 309 309 307 306 309 306 307 300 296 288 291 295 301 297 296 297 292 292 290 288 289 288 290 289 285 290 294 296 299 299 300 302 303 305 306 307 310 312 316 318
307 307 307 307 307 308 308 308 309 310 311 310 311 310 312 310 303 305 309 307 307 298 289 287 286 287 298 296 299 295 294 287 293 287 287 288 287 285 287 291 301 300 297 298 300 300 300 301 302 306 309 310 315 316
307 307 307 307 307 307 308 309 310 310 310 310 310 310 308 307 310 307 302 297 296 295 292 287 290 287 294 295 295 295 295 289 288 291 294 286 285 295 299 302 304 309 303 301 298 299 301 306 308 309 310 310 314 315
307 307 307 307 307 308 309 310 310 310 308 313 312 309 311 310 306 303 300 295 294 292 293 293 292 292 298 292 293 298 293 291 287 295 291 287 287 294 299 302 305 305 310 308 305 307 312 311 311 313 314 318 321 320
307 307 307 307 308 309 310 309 310 315 313 309 310 309 311 308 306 300 296 297 296 296 303 298 301 297 299 300 297 303 297 298 291 301 292 285 291 297 298 300 303 304 307 307 310 312 312 315 316 313 310 309 310 312
307 307 307 308 309 309 309 310 309 309 310 314 313 306 304 302 291 289 286 292 294 302 306 305 302 306 307 307 304 301 296 295 304 291 285 290 296 298 298 299 302 304 305 305 305 306 307 309 312 311 309 311 311 311
307 308 308 308 309 309 310 309 309 311 316 309 304 291 298 296 297 295 296 298 301 304 304 307 305 306 306 301 300 295 299 299 291 286 286 294 298 300 301 302 301 302 304 304 304 305 304 303 303 305 309 310 310 308
307 308 308 310 309 310 310 309 310 321 313 305 304 295 297 301 302 302 303 303 305 306 308 307 307 305 301 299 298 295 294 288 288 287 292 298 300 301 302 302 302 302 303 303 305 304 305 305 304 305 307 308 309 310
308 308 315 309 309 309 309 315 319 318 312 306 304 301 303 300 300 301 302 302 305 307 312 308 302 299 296 297 292 288 288 286 290 295 298 298 300 302 303 304 304 305 304 306 306 306 304 305 304 303 304 306 307 308
307 317 309 309 309 309 311 319 316 309 307 303 302 306 304 303 301 302 303 302 307 304 300 301 294 292 299 293 290 294 289 291 296 299 298 298 299 303 304 304 304 304 305 305 306 307 307 306 307 306 304 304 306 305
316 317 311 309 310 316 320 318 312 307 301 306 303 304 305 305 303 303 304 304 303 302 300 295 299 293 291 288 290 295 298 300 302 302 300 300 300 302 305 305 304 304 303 305 305 305 305 304 305 304 306 307 306 307
312 311 309 308 311 315 313 312 313 303 305 309 309 309 308 306 306 306 305 305 305 304 303 299 294 292 292 295 294 296 297 298 299 301 302 303 302 303 304 304 304 304 304 303 303 302 302 303 302 304 305 305 303 304
308 308 309 310 312 315 308 311 317 309 306 307 310 308 308 307 305 305 304 303 301 300 297 295 294 296 295 296 297 297 297 299 299 299 299 300 300 301 301 301 300 301 301 301 301 299 303 302 303 302 302 301 301 301
312 317 313 317 321 317 313 313 310 311 310 309 310 310 310 311 304 302 302 304 300 297 295 298 298 298 301 301 300 299 298 298 297 297 296 296 299 300 299 300 300 299 297 297 297 299 300 301 302 303 302 302 302 301
318 311 321 322 317 314 314 315 313 314 311 311 311 311 308 305 303 302 304 300 298 300 301 301 300 300 300 299 299 300 300 300 299 298 296 297 296 296 296 297 297 296 296 296 297 297 299 300 301 301 301 300 299 299
312 316 320 318 312 306 306 317 310 311 306 309 311 306 306 306 306 307 302 303 302 306 306 305 304 303 301 301 302 300 300 299 296 296 296 296 297 297 296 297 297 296 295 296 298 298 298 296 299 300 300 300 300 299
308 316 311 310 310 304 314 309 313 311 312 308 306 301 303 306 309 304 298 301 303 308 306 307 304 301 301 301 299 298 298 298 297 297 296 295 295 295 296 296 297 297 297 298 298 297 297 297 295 297 297 296 296 295
304 304 308 294 311 305 302 303 304 304 300 304 302 302 305 309 302 299 296 300 304 305 306 308 306 304 299 299 300 299 300 297 295 294 296 295 295 295 295 296 297 297 297 297 296 296 296 296 296 296 295 294 294 294
296 309 302 307 309 304 304 297 298 299 301 300 303 308 309 303 296 293 299 302 304 305 305 304 301 301 301 301 298 298 297 298 297 295 295 295 294 293 293 293 293 294 297 298 297 295 295 295 294 294 294 293 290 293
299 305 313 318 315 312 308 308 308 302 298 298 303 302 302 294 293 299 304 306 306 308 310 308 306 302 300 300 299 300 300 299 296 295 296 296 296 296 294 292 292 294 297 297 297 296 295 294 294 294 294 295 294 294
311 311 306 310 310 313 305 305 301 298 301 306 305 298 296 297 299 306 308 309 310 311 308 305 305 304 302 300 300 299 300 300 298 298 298 298 299 297 296 296 296 290 295 296 296 297 296 295 295 294 294 294 294 296
311 314 312 307 308 309 308 306 305 308 309 306 303 302 303 309 311 309 310 312 313 309 305 302 300 301 300 300 300 301 301 298 295 292 291 292 292 293 296 296 296 298 298 298 286 291 294 294 294 294 295 294 295 295
311 315 309 307 305 305 310 312 311 313 311 310 311 309 309 311 312 314 311 308 306 305 306 302 300 300 300 300 299 298 300 300 298 295 292 292 292 295 296 296 296 296 297 296 296 296 291 294 293 294 294 294 293 293
317 314 309 310 308 313 314 316 314 312 311 309 310 307 307 312 312 313 311 311 309 308 301 299 300 303 302 301 299 297 296 298 298 297 296 297 297 297 296 296 296 297 296 296 295 294 294 293 293 292 292 292 292 292
314 312 311 307 309 314 313 312 312 310 311 309 309 311 311 309 307 309 306 307 306 303 298 302 303 300 302 301 301 300 289 299 299 298 297 299 297 297 297 297 296 295 295 294 294 293 293 292 291 291 291 291 291 292
312 313 312 310 310 308 311 310 309 308 310 309 310 311 311 308 305 306 305 305 304 303 304 303 302 302 302 301 300 299 294 300 294 289 290 288 287 289 294 297 297 295 294 293 293 293 293 292 292 291 291 291 291 292

GFSWCAN_sfc_thetae_045.txt.gz
Theta_e
310 310 310 311 310 311 311 311 311 311 312 312 311 311 312 313 313 310 308 307 299 292 295 297 298 295 295 295 290 294 294 296 294 290 289 290 290 293 292 295 294 294 292 292 294 293 292 309 307 304 311 318 318 319
310 310 310 310 310 311 311 311 311 311 311 312 311 312 312 312 312 312 306 307 306 297 297 303 302 303 302 301 296 295 295 296 296 296 296 295 292 293 292 289 298 292 297 295 297 297 307 308 308 311 312 311 313 314
309 309 310 310 310 310 310 310 311 311 311 311 311 312 312 312 313 312 308 304 302 296 296 296 298 304 306 305 305 293 295 298 296 299 294 294 290 295 288 292 295 299 302 297 298 302 304 306 308 309 310 310 312 313
309 309 310 310 310 310 310 310 310 311 311 311 311 312 312 312 312 312 307 306 303 297 290 298 306 303 307 306 305 303 300 300 299 298 294 293 292 297 293 295 294 298 299 298 298 301 303 305 307 308 309 310 310 312
309 309 309 309 309 309 309 310 310 310 310 311 311 312 312 312 312 313 314 310 308 299 293 295 304 306 306 306 303 303 301 299 296 293 292 290 294 294 296 296 294 299 298 295 294 302 303 304 307 309 308 308 310 310
309 309 309 309 308 309 309 309 310 310 310 310 311 312 312 312 310 311 303 310 309 305 295 291 302 302 304 305 303 302 301 300 297 292 291 293 297 292 288 291 298 300 301 303 301 305 305 307 308 309 308 309 310 311
308 308 308 309 308 309 309 309 310 309 310 311 311 312 311 311 312 306 305 307 308 306 295 291 292 301 302 302 302 301 300 297 293 288 288 290 292 292 289 286 294 295 299 301 303 303 302 305 305 309 309 310 311 312
308 308 308 309 308 309 309 309 309 310 311 311 311 311 310 308 307 307 310 307 308 301 297 289 291 295 301 295 296 297 292 291 289 289 289 288 290 289 285 292 293 295 297 297 299 302 303 306 307 306 309 310 309 309
308 308 308 308 308 309 309 309 310 311 311 310 311 310 313 310 308 307 308 307 307 301 293 291 287 291 300 297 299 296 293 288 292 287 288 288 286 285 286 291 298 305 310 305 303 302 304 304 305 307 306 308 308 309
308 308 308 308 308 309 309 310 311 311 310 311 312 312 308 311 310 308 303 303 302 299 297 292 294 291 296 298 296 296 296 293 289 292 292 287 286 297 298 300 302 305 306 307 303 301 303 303 302 304 305 307 308 310
308 308 308 308 309 309 309 310 310 310 309 315 316 312 315 311 307 308 307 304 306 305 299 302 297 295 301 295 295 300 296 294 292 297 296 289 288 295 300 300 303 305 305 307 307 307 309 310 309 311 311 314 314 315
308 308 308 308 309 309 310 310 310 315 318 313 315 316 317 310 307 303 301 304 302 300 305 305 306 307 304 303 299 306 301 301 292 301 293 285 294 300 301 301 302 305 305 305 306 308 310 309 310 310 310 310 311 311
307 308 308 308 309 310 310 310 310 309 309 320 316 309 305 307 297 294 290 296 296 303 305 306 306 309 310 310 307 303 297 296 303 293 286 291 298 301 303 303 303 306 305 305 304 305 307 307 309 309 307 309 309 309
306 307 308 309 310 310 310 310 310 312 315 312 305 295 300 298 299 301 300 302 306 307 307 307 307 308 308 304 303 297 301 299 291 286 287 295 299 302 304 305 304 304 305 305 304 304 304 305 305 308 310 309 308 306
307 307 309 311 310 310 310 310 311 319 315 308 307 297 300 305 305 305 306 306 308 309 309 308 308 307 304 301 300 297 295 290 289 287 293 299 301 304 305 304 304 305 305 304 305 305 305 304 305 305 308 309 309 307
308 308 317 310 310 310 310 317 321 322 315 310 307 304 306 304 303 304 304 303 308 309 311 310 304 301 299 299 295 292 289 287 291 296 298 303 303 304 306 305 305 306 306 306 305 305 305 306 306 306 306 306 308 309
306 321 310 310 309 309 312 322 320 311 309 305 303 309 307 306 304 304 305 304 308 306 302 304 297 295 300 292 291 296 293 296 298 301 303 305 305 306 306 305 305 306 305 305 306 307 306 308 308 308 308 309 309 309
320 321 312 310 311 319 323 320 315 311 305 308 304 307 309 308 305 305 305 306 305 304 303 299 302 296 293 289 291 295 298 300 302 303 302 305 306 307 305 305 304 304 303 303 305 305 306 305 306 304 307 308 307 307
315 314 310 309 312 317 316 315 316 306 308 311 310 311 310 308 308 308 307 307 307 307 305 302 297 294 294 296 296 297 298 298 299 301 302 306 306 305 305 305 304 303 302 302 302 302 303 305 304 304 305 305 304 304
308 309 309 311 312 319 311 314 319 312 306 309 313 309 310 308 307 307 306 306 304 303 300 297 296 297 297 298 299 299 299 300 299 298 299 301 303 304 303 302 301 302 301 301 302 299 303 303 303 304 303 303 302 302
310 319 316 320 326 321 316 315 313 312 313 311 312 312 307 309 306 304 304 306 302 300 298 301 300 302 304 303 302 301 301 301 299 299 297 297 300 301 300 301 301 300 299 299 299 300 300 301 302 303 302 302 302 303
322 312 324 323 320 318 317 319 313 316 312 311 310 311 307 305 304 304 307 304 302 302 302 302 301 302 303 302 302 303 303 303 302 300 298 298 298 298 298 299 299 298 299 299 300 300 300 301 301 303 302 302 301 300
314 319 324 321 314 308 308 321 311 312 306 308 310 305 306 307 307 310 305 306 305 307 307 306 306 307 305 305 305 305 303 302 299 299 299 298 299 300 299 299 299 298 298 299 300 300 299 296 299 299 300 300 300 299
308 320 314 311 312 305 316 310 314 311 312 307 306 302 304 306 310 306 301 304 306 309 306 309 307 305 305 307 302 302 301 301 300 299 300 298 297 298 299 299 299 299 299 300 299 299 299 299 297 299 298 298 298 297
306 307 310 296 312 306 302 303 304 306 301 304 302 303 305 310 303 301 300 303 306 307 308 309 306 306 304 303 301 302 304 300 298 297 299 298 297 297 298 298 300 299 300 299 298 298 298 298 298 298 297 296 296 296
296 310 303 308 310 306 305 300 300 301 302 301 304 310 311 304 298 296 303 305 307 308 308 306 304 303 302 304 301 300 300 301 299 297 298 298 297 296 295 295 295 297 299 299 298 297 297 297 297 296 296 295 292 295
298 305 313 319 314 313 309 311 311 306 301 300 304 304 303 297 296 303 307 310 308 308 311 308 306 305 304 303 303 303 302 301 299 298 300 300 299 299 297 295 294 296 298 299 298 297 296 296 296 296 296 296 297 297
311 311 307 311 311 313 306 307 304 302 304 309 306 299 298 299 300 309 311 312 313 312 310 308 307 306 303 304 304 303 304 302 301 301 301 301 300 299 299 299 298 291 298 298 297 298 297 296 296 295 296 296 296 297
312 314 313 308 309 309 309 306 306 308 312 308 303 303 304 309 314 314 316 317 315 314 310 308 306 307 307 305 304 304 302 300 297 295 294 295 295 296 299 299 299 300 299 297 290 293 296 295 296 296 296 296 296 296
311 317 311 309 306 305 309 312 310 313 313 313 312 311 311 312 316 318 317 316 313 311 311 309 307 306 302 302 301 302 304 302 301 297 295 294 295 298 298 298 298 298 298 298 298 297 292 295 295 296 296 295 295 294
315 314 311 310 308 310 313 313 314 315 314 313 313 310 309 313 315 315 314 315 314 314 311 306 306 307 303 301 300 298 297 300 300 299 298 299 298 297 297 297 298 298 297 297 296 295 295 294 294 294 294 293 293 293
314 311 309 307 308 314 315 313 311 310 310 311 311 314 313 312 309 313 312 311 310 309 298 302 304 302 303 303 303 301 291 301 303 301 299 299 298 298 298 298 298 297 297 296 296 295 295 294 293 293 292 293 293 294
313 311 311 310 309 309 313 312 309 308 310 311 310 311 311 310 306 308 311 310 308 306 305 304 304 304 304 302 301 302 295 301 294 290 290 289 288 290 295 297 297 296 295 295 294 294 294 293 293 293 294 294 294 294

GFSWCAN_sfc_thetae_048.txt.gz
Theta_e
311 311 311 311 311 311 311 311 311 312 311 311 312 312 313 313 313 311 308 309 300 293 295 298 299 295 295 295 291 296 294 295 296 290 291 291 290 292 293 294 294 293 291 292 295 294 293 309 309 305 314 317 316 316
310 310 310 311 311 311 311 311 311 310 311 311 311 312 313 313 313 313 306 310 307 297 297 301 302 303 301 300 297 296 295 295 295 292 294 293 290 292 292 288 299 292 297 295 297 297 311 308 308 311 311 311 313 313
310 310 310 310 310 310 310 310 311 311 311 311 312 312 312 313 313 312 310 306 303 297 297 297 300 305 306 306 306 295 298 299 298 299 294 294 290 295 290 291 294 298 302 296 298 302 304 306 309 310 310 310 311 312
309 310 310 310 310 310 309 310 311 311 311 311 312 312 313 313 313 312 308 307 304 298 291 298 307 304 308 307 306 304 302 302 300 299 293 292 290 297 292 294 293 296 298 297 297 301 304 305 306 308 309 310 310 311
309 310 310 309 309 309 310 310 310 310 311 311 312 312 312 312 312 313 317 309 307 300 294 296 303 306 307 306 304 304 301 299 297 294 292 290 294 294 296 296 294 299 297 294 295 302 303 305 307 309 308 307 309 309
309 309 309 309 309 309 309 310 310 310 310 311 312 312 312 312 310 315 303 308 309 305 296 291 302 302 304 304 303 302 303 300 297 291 289 292 296 292 288 288 295 298 299 300 298 303 303 306 309 309 308 309 310 310
309 308 309 309 309 308 309 309 309 310 311 312 312 312 311 311 314 308 304 307 309 307 297 293 297 303 303 302 302 300 300 295 292 289 287 288 290 292 288 285 291 294 295 295 298 300 299 301 302 308 309 309 310 311
308 308 309 309 309 309 310 310 310 311 312 312 311 311 310 308 308 308 310 308 309 302 301 295 296 300 303 298 296 298 293 292 291 290 290 288 289 288 284 290 294 300 304 307 299 299 299 302 304 306 309 309 308 309
308 308 309 309 309 309 310 310 311 311 311 311 311 311 314 311 309 309 309 308 311 304 300 297 290 295 303 300 299 296 294 287 292 288 289 288 285 285 288 294 297 301 303 305 307 304 302 299 302 304 306 307 307 307
308 309 308 309 309 309 310 310 311 311 311 311 312 313 309 312 310 310 305 301 302 306 306 296 299 298 300 301 298 297 295 294 289 295 294 289 287 297 299 299 301 302 305 307 302 302 303 302 303 304 305 307 309 310
308 308 308 308 309 309 310 311 311 310 310 314 314 313 316 311 312 308 308 306 308 306 306 308 307 303 306 299 299 301 299 298 292 296 295 289 288 295 301 300 302 303 304 303 304 304 306 309 307 307 307 309 309 310
308 307 307 307 308 309 310 311 311 313 319 313 316 317 319 312 309 305 302 305 303 301 306 305 307 313 310 308 301 306 300 300 290 299 292 285 293 300 302 302 302 303 304 304 304 304 304 306 309 311 309 308 308 309
307 307 307 307 308 310 311 311 311 312 310 322 316 310 309 307 296 297 294 299 300 305 307 308 306 311 314 312 309 303 297 296 301 292 286 292 299 302 303 303 303 304 303 304 305 305 305 305 307 307 306 307 307 306
308 307 308 308 309 310 311 311 312 313 315 314 307 293 302 300 301 301 301 302 305 306 307 309 305 309 308 303 302 296 300 298 291 286 287 294 300 303 304 304 302 301 304 303 303 306 305 304 304 307 307 307 306 305
308 308 309 311 311 311 311 311 312 319 317 309 308 296 302 306 306 306 306 305 306 309 308 308 309 307 304 299 300 297 294 290 289 288 294 299 303 304 304 303 303 303 302 304 305 304 306 305 304 305 307 309 306 306
308 309 318 311 311 311 310 316 319 322 315 311 308 304 306 304 304 304 304 303 307 307 309 308 303 300 298 297 294 292 290 288 293 298 301 303 304 304 305 305 305 304 303 303 306 305 306 307 305 305 306 306 306 307
307 323 310 310 309 310 312 321 321 312 311 307 306 310 308 305 304 304 305 304 308 305 301 303 297 295 300 294 291 294 292 295 298 301 303 306 305 306 306 305 304 304 305 303 306 306 306 308 308 306 303 304 306 306
318 322 313 310 311 320 324 321 316 312 306 309 306 308 309 308 306 306 306 307 305 304 304 300 301 295 293 290 292 296 298 299 300 302 305 306 306 308 306 306 306 305 304 305 305 307 307 305 303 303 306 306 304 304
315 313 310 309 311 316 315 315 317 308 309 311 312 311 311 309 309 309 308 308 308 307 304 302 297 294 294 296 295 297 298 298 298 300 303 309 308 307 306 305 306 305 305 305 304 302 303 307 304 304 303 303 302 303
308 309 309 311 313 321 312 315 320 311 307 310 311 310 310 309 309 308 308 307 306 304 300 297 297 297 298 299 300 299 300 300 300 298 299 299 301 304 303 301 300 304 302 304 302 299 302 302 302 302 302 303 301 300
316 320 316 321 327 321 314 313 313 312 312 309 311 311 308 311 307 306 306 308 304 301 299 301 301 303 306 304 304 303 302 302 300 299 298 297 299 301 300 301 301 301 300 300 300 300 299 300 301 302 302 301 300 299
324 314 325 324 320 318 316 317 313 315 312 311 311 310 308 305 305 306 309 304 303 303 304 303 304 303 304 305 304 305 305 304 305 301 300 299 298 299 299 299 299 299 299 299 300 299 298 299 299 301 300 300 300 298
317 320 324 320 314 308 306 319 311 311 306 307 311 307 305 305 308 312 305 306 306 308 308 309 309 310 308 309 309 307 305 304 300 300 300 299 299 300 300 300 300 299 298 299 300 299 299 297 299 299 299 300 299 299
311 322 316 311 310 303 314 311 313 309 309 306 304 302 304 307 310 305 301 304 305 309 308 312 309 306 308 309 305 303 303 302 300 300 301 299 297 298 299 299 300 300 299 300 300 299 299 299 297 299 297 297 298 297
308 306 309 295 312 308 303 303 304 305 302 304 302 302 305 309 303 302 301 304 305 305 307 309 308 306 302 303 304 303 305 301 299 298 300 299 298 298 298 299 300 300 300 299 298 298 298 298 298 298 297 296 296 297
295 310 302 308 308 306 306 302 302 303 303 301 303 307 309 305 300 298 302 305 307 307 308 308 304 304 304 305 302 302 301 302 300 298 298 299 298 297 296 295 296 297 300 299 298 297 297 297 297 297 296 295 294 297
298 307 312 315 312 311 309 309 309 307 302 301 304 304 302 297 299 304 309 313 311 312 312 312 309 307 304 304 304 304 303 303 302 300 301 301 300 299 298 296 294 295 298 299 298 298 297 296 296 296 297 297 297 297
312 311 306 310 311 310 307 305 304 303 303 307 306 302 299 301 303 308 311 314 315 315 314 311 311 308 306 305 304 303 302 302 303 302 302 301 301 300 300 300 299 292 298 298 297 298 297 296 296 296 296 296 296 297
312 315 313 308 310 310 309 307 307 310 312 309 305 304 304 310 310 313 315 315 315 314 310 309 310 309 307 307 305 304 303 302 298 295 295 295 296 297 300 299 299 299 299 298 290 294 296 296 296 296 296 296 296 297
312 316 312 310 308 307 311 313 312 312 313 312 312 311 311 313 316 317 315 315 312 310 311 308 307 306 304 303 301 302 302 302 301 298 295 294 296 298 299 298 298 298 299 298 297 297 293 296 295 297 296 296 295 295
315 313 310 310 308 313 313 315 313 313 313 311 313 310 309 314 314 317 314 313 311 310 309 306 305 305 303 301 300 299 298 300 301 301 299 299 299 298 298 299 298 298 298 298 297 296 296 295 295 295 294 294 294 295
313 312 309 307 308 313 315 314 312 309 310 310 310 312 310 311 309 312 311 310 307 305 300 304 303 302 304 303 302 301 294 300 300 300 300 298 298 298 298 298 298 298 297 297 295 295 296 295 294 294 294 294 295 295
313 312 311 309 309 309 312 312 309 308 309 309 308 310 310 309 306 308 311 310 307 305 304 304 304 304 304 303 302 301 299 297 292 290 290 289 288 291 296 297 297 296 296 295 295 295 294 294 293 294 294 294 294 294

GFSWCAN_sfc_thetae_051.txt.gz
Theta_e
311 311 311 311 311 311 311 311 311 311 311 311 312 312 313 313 313 311 308 310 300 293 295 298 298 294 294 293 289 293 292 293 293 288 288 287 288 289 289 290 288 290 289 289 290 291 290 304 304 298 307 308 308 308
311 311 310 310 311 311 311 311 310 311 311 311 312 312 313 313 313 313 305 310 308 297 297 301 301 302 301 300 296 296 293 294 294 290 289 290 287 291 288 285 294 288 290 287 291 293 301 304 303 306 307 306 306 306
310 310 310 310 311 310 310 310 310 311 311 311 312 313 313 313 313 312 309 306 303 297 297 298 299 306 305 304 306 294 297 298 295 298 292 290 287 291 285 288 289 293 296 290 292 296 298 301 305 306 306 305 306 306
310 310 310 310 310 310 310 310 310 310 311 311 312 313 313 313 312 312 308 306 305 299 292 296 307 303 307 307 306 304 301 302 298 297 291 289 288 293 288 290 289 292 295 290 292 296 297 300 301 304 304 306 307 306
309 310 309 309 309 309 309 310 310 310 311 312 312 313 313 312 312 312 309 307 307 301 294 295 302 305 307 306 304 304 302 299 297 292 291 289 292 290 291 291 290 294 291 288 287 293 293 295 300 303 301 302 305 306
309 309 309 309 309 309 309 309 310 310 311 312 312 312 313 312 311 313 302 307 308 306 296 292 301 303 304 305 303 300 300 298 295 290 288 290 295 292 286 284 292 295 296 296 292 296 296 297 300 301 300 301 304 306
309 309 309 309 309 309 310 309 310 311 311 312 312 312 312 312 311 306 302 307 309 308 297 295 298 303 304 303 302 299 297 294 292 289 287 287 288 291 286 284 292 292 298 300 301 299 296 298 297 301 303 305 307 307
308 308 309 309 309 310 309 310 310 311 312 312 311 312 310 308 306 307 307 308 309 303 300 297 298 300 304 299 296 298 293 293 291 290 290 287 289 287 283 289 295 299 303 304 303 305 303 302 303 302 303 304 303 304
308 308 309 308 309 309 309 310 311 311 312 311 312 311 312 309 309 309 311 309 310 303 300 299 293 295 303 300 298 295 295 289 292 288 288 287 285 285 288 296 296 298 299 300 302 302 303 304 301 303 302 302 302 303
308 308 308 308 308 308 308 309 310 311 310 311 310 311 309 310 311 311 306 303 302 304 305 296 301 298 301 301 298 297 295 294 290 294 293 288 287 297 300 300 300 299 301 302 298 298 300 304 300 300 301 303 303 304
308 308 308 308 308 308 309 310 311 311 310 310 313 313 312 312 310 307 307 303 307 304 305 301 301 302 307 299 299 301 298 298 288 294 293 288 288 295 301 300 301 301 302 303 303 303 304 308 304 304 303 304 307 308
308 308 307 308 308 308 310 310 311 310 320 312 310 320 315 310 309 305 302 305 304 301 307 306 307 308 308 306 300 302 298 298 290 297 290 285 293 299 301 300 302 302 302 303 304 303 304 304 305 305 304 305 305 306
308 308 308 308 309 309 310 311 312 312 311 320 315 314 308 306 297 296 291 298 298 305 305 307 306 310 312 310 304 302 296 294 299 290 286 291 297 300 301 299 300 302 304 304 305 304 304 304 305 303 303 305 305 305
308 308 309 309 309 310 311 311 313 312 313 314 309 293 302 301 302 301 299 300 303 303 303 308 306 307 308 303 301 297 299 295 288 284 286 294 298 300 302 301 299 299 300 303 304 304 304 303 303 305 304 304 304 303
308 309 309 310 311 311 311 311 313 315 316 312 309 293 303 305 305 305 305 304 305 305 305 304 308 306 302 300 299 296 292 288 289 287 294 298 300 301 301 301 300 299 300 299 303 303 303 303 302 301 303 305 304 303
309 309 316 311 311 310 310 314 315 321 319 312 311 305 305 302 302 303 303 302 306 306 307 308 303 299 297 297 293 291 289 287 292 297 300 301 301 302 302 302 303 301 301 300 302 303 304 303 303 303 303 302 303 303
308 319 311 311 310 310 312 323 326 316 311 307 307 310 307 305 303 304 305 304 308 304 300 301 295 296 299 292 291 295 293 293 297 301 303 303 301 303 303 302 303 302 302 302 303 303 302 304 304 301 300 304 304 304
314 321 313 310 310 317 330 324 318 312 307 309 307 309 308 309 306 306 307 308 306 302 303 300 301 293 292 288 289 294 296 297 298 300 304 304 305 306 303 302 303 304 303 301 303 304 303 302 300 299 300 301 301 302
311 311 309 309 310 311 319 318 321 308 309 312 313 312 312 312 314 313 309 312 311 307 305 301 296 292 292 296 295 296 297 297 297 299 302 302 303 303 303 303 301 302 303 301 300 301 302 302 300 300 299 299 297 297
308 309 310 311 312 320 317 317 326 315 308 311 315 312 313 312 313 312 310 308 308 304 300 297 296 297 297 300 302 300 300 301 300 297 298 298 299 300 302 302 300 301 299 302 298 298 299 297 299 300 298 297 296 296
317 322 316 317 326 320 318 315 311 315 315 312 314 315 312 313 308 308 309 311 304 302 299 302 302 305 307 306 306 305 305 303 300 299 299 296 299 300 300 300 300 299 298 298 297 296 296 295 297 298 298 296 296 296
324 317 324 328 320 320 318 322 315 320 315 312 313 314 310 308 308 309 312 307 304 305 306 306 307 306 306 306 306 306 306 305 305 303 298 299 297 298 298 298 298 297 298 298 298 296 296 296 296 297 297 297 296 295
318 320 324 323 313 304 303 322 314 315 307 310 310 307 308 309 311 314 307 308 308 311 311 311 312 312 309 311 311 308 308 305 302 301 302 299 299 299 298 299 299 297 296 298 299 298 297 296 296 296 296 297 297 296
313 320 317 313 310 302 316 313 315 311 312 308 306 303 305 309 313 307 302 306 308 310 311 314 313 308 311 311 308 305 306 303 300 300 299 297 296 297 298 298 298 298 298 299 298 298 298 297 296 296 295 295 295 296
306 304 307 292 311 309 306 304 306 305 303 306 304 306 307 311 303 302 302 303 306 307 309 310 308 309 306 306 301 302 303 299 298 298 298 299 297 297 296 297 297 297 298 297 296 296 296 297 297 296 295 295 295 295
294 309 302 309 310 307 304 303 303 297 301 302 304 309 311 303 299 298 301 304 307 310 309 309 308 306 307 306 303 300 300 301 301 298 299 299 298 295 295 294 293 293 297 297 296 296 296 296 296 296 296 296 294 296
295 307 313 318 314 312 306 306 308 305 301 301 303 305 303 299 298 300 306 308 308 314 314 311 307 306 306 304 304 305 304 304 302 301 303 301 299 299 297 294 293 295 298 296 296 296 294 294 295 296 295 295 295 295
312 315 307 310 311 308 304 305 304 304 306 306 306 302 301 300 301 307 309 313 316 314 313 313 311 310 308 308 304 304 304 302 303 303 302 301 300 299 300 298 298 294 296 295 296 296 295 295 295 295 295 294 294 295
311 315 315 311 312 307 308 306 307 310 312 310 306 304 304 308 309 309 312 313 315 313 311 309 310 310 308 305 305 305 304 302 299 296 294 294 295 296 298 298 298 299 298 296 292 294 295 294 294 294 296 296 296 296
312 316 312 311 309 308 311 313 312 314 314 311 313 311 309 308 313 316 313 314 311 310 311 309 307 305 303 301 300 299 300 300 299 297 294 294 294 297 297 297 297 297 297 297 297 297 294 295 296 296 296 295 294 295
315 314 312 311 309 313 313 316 316 316 310 307 310 309 309 308 314 315 312 310 309 307 305 303 302 302 300 299 298 297 296 299 299 299 298 297 297 297 297 298 298 298 297 296 296 295 295 295 295 294 294 294 294 294
314 312 310 310 309 316 317 315 313 311 311 309 306 308 309 309 307 308 309 308 305 303 302 302 301 299 301 301 301 298 296 296 296 296 296 295 295 297 298 297 297 297 296 295 295 295 294 294 294 294 293 294 294 294
314 313 314 309 311 311 314 314 311 311 310 307 307 308 309 307 302 307 311 310 306 303 303 303 303 303 304 300 297 296 295 294 291 290 290 289 290 292 294 294 295 295 294 293 294 293 293 293 293 293 294 294 294 294

GFSWCAN_sfc_thetae_054.txt.gz
Theta_e
310 311 311 311 311 312 311 311 310 310 311 311 312 312 313 313 313 310 307 307 300 293 295 297 298 295 294 293 289 289 287 289 290 286 285 285 286 287 287 289 288 287 286 285 287 289 286 299 300 293 297 303 304 303
310 311 311 311 311 311 311 310 310 310 310 311 311 312 313 313 313 312 304 310 307 298 297 301 301 302 300 300 295 293 292 288 289 286 287 288 286 288 286 284 292 285 289 287 288 290 298 302 301 304 302 300 301 302
310 310 310 310 310 310 310 310 310 310 311 311 312 313 313 313 313 312 307 305 303 297 297 298 300 305 304 302 303 293 293 297 292 291 288 287 285 288 284 286 288 292 294 288 287 294 294 297 302 302 300 300 301 302
310 310 310 310 310 310 310 310 310 310 310 311 312 313 313 313 313 312 305 304 299 296 292 295 305 303 307 306 304 302 300 300 298 293 286 286 285 289 285 287 287 291 292 289 287 290 295 297 299 299 299 301 301 301
309 310 309 310 310 309 309 310 310 310 311 312 312 313 312 312 312 309 307 306 305 296 292 293 299 301 302 302 302 301 300 298 295 291 290 287 291 289 286 286 289 293 289 287 287 293 293 294 298 300 299 299 301 300
309 309 309 309 309 309 309 309 310 311 311 312 312 312 313 313 312 305 300 306 306 302 292 288 296 301 301 300 300 296 297 295 293 290 288 290 292 290 284 282 291 294 299 301 292 298 298 298 299 301 300 301 302 302
309 309 309 309 309 309 309 309 310 311 312 312 312 312 311 311 305 302 298 303 307 303 292 290 297 303 303 302 299 296 295 292 291 289 287 288 289 289 286 283 289 297 299 300 301 299 299 302 300 303 304 304 305 304
309 309 309 309 308 308 308 309 310 311 311 311 311 312 309 309 306 302 302 307 305 297 296 294 295 297 301 296 293 296 292 293 291 290 291 287 289 287 284 291 296 298 300 300 300 300 299 301 302 303 305 304 303 302
308 308 309 308 308 308 308 308 310 311 311 311 312 311 308 304 301 302 310 309 302 298 295 295 291 293 299 295 294 295 292 290 292 288 289 288 285 285 289 294 295 298 299 299 300 300 302 304 303 303 301 301 300 301
308 308 308 308 308 308 308 308 310 311 310 311 306 304 302 306 312 310 301 300 300 296 294 293 299 296 296 297 296 295 294 292 289 291 292 287 287 296 299 299 299 300 301 302 298 297 299 301 301 300 299 299 300 300
308 308 308 308 308 308 308 309 311 310 309 304 303 304 304 312 303 301 299 295 296 290 296 296 298 297 302 293 296 298 294 292 284 287 287 288 288 295 299 299 301 301 303 303 303 302 302 301 301 302 303 304 304 304
308 308 308 309 309 310 310 310 310 304 307 307 304 308 304 302 299 296 294 297 295 294 298 298 299 301 300 299 296 298 293 292 284 292 288 285 293 298 298 299 299 300 302 303 304 303 302 301 302 301 302 302 303 304
308 308 308 309 309 309 310 310 311 310 309 308 307 303 299 297 290 291 286 290 290 294 295 297 299 300 300 299 297 295 292 288 293 287 285 288 294 297 297 298 299 299 302 303 303 303 303 303 301 301 300 301 302 301
308 308 308 309 309 310 310 311 311 310 305 306 303 290 294 292 294 293 292 292 296 295 296 296 299 302 299 296 293 291 294 290 285 283 284 288 292 295 296 299 298 296 298 302 302 302 301 300 302 302 302 302 302 300
308 308 308 309 311 311 310 311 312 307 308 305 301 292 295 297 296 297 297 295 297 297 297 296 298 296 293 292 291 289 288 281 285 281 287 293 296 295 295 297 296 297 296 298 301 301 302 301 300 300 301 301 300 300
308 308 312 311 311 310 310 310 308 311 311 304 302 297 297 295 295 295 295 294 297 297 298 296 293 291 289 289 288 286 284 278 285 289 293 296 296 294 295 296 296 297 296 298 300 302 302 302 301 301 302 303 302 301
308 310 311 310 309 310 311 312 316 312 304 302 298 303 301 296 296 296 296 296 298 295 291 292 288 289 290 287 285 287 281 286 288 292 294 295 294 294 296 293 295 295 296 296 298 299 300 301 301 301 300 300 300 300
307 313 311 309 308 311 318 313 312 307 305 301 297 300 300 299 297 297 298 298 296 294 293 291 292 287 285 285 283 287 288 289 290 291 295 295 296 295 296 292 294 293 294 295 295 298 297 296 295 296 299 300 300 299
306 306 308 309 307 305 312 310 310 306 304 304 302 304 301 301 301 300 298 300 297 296 294 291 289 286 285 287 288 289 289 289 289 291 292 292 291 291 294 294 293 294 293 292 292 292 292 292 294 294 294 294 293 294
308 309 309 310 310 312 313 307 312 306 303 301 303 301 301 300 301 300 298 297 296 294 291 290 289 290 290 291 292 292 291 292 291 290 290 291 291 292 293 292 291 291 293 293 291 292 291 293 294 294 292 293 292 291
312 317 313 311 311 310 311 305 307 307 303 301 303 304 301 303 299 297 297 298 295 292 291 292 293 294 295 295 296 295 294 293 292 292 291 289 290 291 291 291 291 291 291 290 290 290 290 289 290 291 292 290 290 291
313 317 315 317 315 315 308 310 304 307 304 304 303 304 300 300 298 299 300 298 295 295 296 296 297 297 297 296 296 296 297 296 295 295 295 292 289 290 290 290 290 290 291 290 291 290 289 289 290 290 290 291 291 291
313 314 315 318 310 299 299 309 305 306 302 302 303 301 301 299 301 305 298 299 299 301 299 299 300 300 299 300 300 299 300 296 295 291 291 289 289 290 290 291 290 290 290 290 291 292 291 291 291 290 291 292 291 290
314 314 311 310 303 296 306 305 309 306 304 301 300 298 299 299 305 302 299 300 303 304 302 302 302 298 301 301 300 299 298 294 294 291 289 289 288 289 290 291 290 290 290 290 290 291 290 290 291 291 292 293 292 290
302 301 303 293 303 303 302 303 300 302 299 299 297 297 298 302 296 295 296 300 303 303 303 303 301 300 299 297 294 293 293 292 290 289 289 289 288 288 289 288 288 288 289 290 290 290 290 291 291 292 291 291 291 290
294 303 299 305 304 303 304 302 302 299 300 299 299 301 302 300 298 296 297 300 302 303 305 302 300 298 297 295 292 291 291 292 291 289 290 290 289 288 287 285 285 287 290 289 290 290 290 291 292 292 292 293 292 291
294 300 306 310 308 307 305 305 305 301 299 298 299 302 299 294 296 298 301 303 301 304 307 305 303 299 298 297 297 297 297 293 292 292 292 292 291 291 289 287 286 287 290 292 291 291 290 291 291 291 290 290 291 291
309 308 304 304 304 306 303 301 301 299 301 303 303 300 298 297 298 301 303 305 307 305 305 305 304 302 298 299 298 296 293 294 296 296 295 293 293 293 292 290 290 292 290 291 291 291 291 290 290 291 291 290 289 291
307 307 308 304 304 305 305 303 303 304 307 306 304 302 303 307 308 305 307 307 308 307 304 301 301 301 299 296 296 296 296 295 294 292 291 290 290 291 291 292 294 292 290 291 293 292 292 290 290 291 291 291 291 292
306 309 305 306 307 305 305 308 306 306 306 307 307 305 305 304 307 309 308 307 302 298 297 296 296 297 294 293 292 293 293 293 293 290 287 286 287 290 294 293 293 293 292 292 292 292 293 293 292 292 292 290 289 290
309 308 307 306 305 306 309 310 307 308 307 306 308 304 302 303 306 308 303 298 298 297 296 294 293 293 292 291 291 291 289 290 290 291 290 289 291 294 292 291 292 293 294 294 291 290 290 290 291 291 290 290 290 290
310 305 304 303 304 309 309 308 307 306 306 305 303 306 307 304 299 299 300 298 296 294 296 294 293 292 292 292 291 291 291 288 288 288 289 288 289 289 289 290 292 292 291 290 290 290 290 289 289 289 289 289 289 289
308 307 308 306 303 304 306 306 306 303 304 302 303 304 305 301 296 297 300 300 297 295 294 295 295 293 292 291 291 290 289 288 289 289 290 290 290 289 287 287 289 290 289 288 289 288 289 290 289 289 289 289 289 289

GFSWCAN_sfc_thetae_057.txt.gz
Theta_e
311 311 311 311 312 312 312 310 310 310 310 311 312 312 313 313 313 308 306 306 301 294 296 297 298 295 295 293 289 292 288 290 288 284 284 283 285 286 286 288 286 286 285 286 289 287 287 299 300 292 294 297 298 298
311 311 311 311 311 311 311 310 310 310 311 311 312 312 313 313 313 311 304 309 306 298 298 302 302 303 301 299 296 295 292 292 291 287 287 287 286 287 286 282 292 285 288 287 285 289 297 299 301 300 299 297 297 297
309 310 310 310 311 310 310 310 310 310 311 311 312 313 313 313 313 310 305 306 303 297 292 296 299 304 306 303 303 294 295 298 294 294 289 287 285 286 283 284 288 291 294 288 288 294 292 295 299 300 301 300 300 301
309 310 310 310 310 310 309 309 309 310 311 312 312 313 313 313 313 310 301 300 297 292 289 292 303 299 305 304 304 302 300 300 297 293 290 289 287 289 286 287 288 290 291 288 289 292 295 298 300 301 301 303 303 303
309 309 310 310 310 309 309 309 310 311 311 312 312 313 312 312 312 308 307 302 301 297 289 291 296 300 302 301 298 300 297 296 294 289 289 287 290 289 289 289 288 293 291 288 288 295 294 295 299 302 301 301 302 302
309 309 309 309 309 309 309 309 310 311 312 312 312 312 313 312 312 306 299 301 303 300 293 291 296 296 299 300 297 296 296 293 292 290 288 290 292 290 285 285 293 296 299 300 295 300 298 301 301 303 301 302 304 304
308 309 309 309 308 308 308 308 309 310 311 311 311 311 310 311 308 303 297 301 305 300 293 295 294 298 299 295 296 295 294 292 292 290 288 289 289 290 286 285 293 297 300 300 300 300 298 300 298 302 303 305 307 307
308 309 309 309 308 309 308 308 309 310 310 311 311 310 309 310 306 301 302 307 303 296 294 293 296 297 296 293 291 292 291 293 291 291 291 288 289 288 285 292 295 298 300 300 300 301 300 303 304 304 304 305 304 304
308 309 309 309 308 308 308 308 309 310 311 311 311 311 308 305 300 302 309 308 301 297 294 294 290 291 297 293 292 292 290 289 291 289 290 288 285 285 287 294 295 298 298 299 301 300 300 299 301 302 302 300 300 301
308 308 309 309 308 308 308 308 310 311 310 310 305 304 301 303 312 309 300 299 300 294 293 292 295 294 297 295 296 295 294 291 288 290 293 287 287 294 297 297 298 299 300 301 297 295 297 297 298 300 301 302 303 304
308 308 309 309 309 309 309 309 310 310 308 302 301 301 302 311 301 298 299 293 293 290 293 296 297 294 301 293 295 298 293 293 284 289 289 286 287 292 297 297 299 298 301 300 302 302 300 299 299 299 299 300 300 302
308 308 308 309 308 308 309 310 310 304 304 305 303 305 302 299 297 293 291 294 292 292 295 295 296 297 298 297 294 296 292 289 282 290 287 281 288 293 295 296 298 298 300 301 301 300 302 301 300 300 300 300 299 299
307 308 308 307 308 309 310 310 310 309 308 305 304 301 299 295 288 288 284 288 288 292 293 293 293 298 299 297 297 296 289 285 290 284 284 286 290 293 294 295 297 298 300 300 300 300 301 299 300 300 298 299 301 299
307 308 307 307 308 309 310 310 310 310 304 303 302 288 292 290 291 290 290 290 293 293 294 292 294 296 296 293 290 289 291 288 282 274 278 287 290 293 294 295 295 295 296 298 299 299 299 299 298 299 300 300 299 299
307 308 307 308 309 311 310 310 310 306 307 303 299 288 293 295 294 294 295 292 294 294 293 294 294 293 290 290 288 287 285 279 279 278 285 290 292 293 293 294 294 293 293 297 298 299 299 299 300 300 301 302 301 301
307 307 310 310 310 310 309 310 308 309 308 303 299 294 294 293 293 293 293 292 293 294 293 292 290 289 287 287 286 284 282 277 282 286 290 292 292 292 292 293 293 293 294 294 298 299 300 299 298 299 300 300 300 300
307 306 310 309 309 309 309 309 313 311 305 300 297 298 295 295 294 294 293 293 294 292 289 289 287 286 288 285 283 285 281 284 286 288 289 292 291 292 293 293 291 292 293 293 295 298 298 299 299 299 296 297 298 299
303 309 309 308 308 308 313 311 309 306 304 300 297 299 298 296 295 295 295 295 293 291 291 289 289 285 283 283 282 285 286 287 287 288 290 291 292 292 291 291 291 292 291 291 291 292 292 294 294 296 297 297 297 297
304 305 307 308 307 305 309 310 307 302 303 300 300 300 299 299 298 296 296 296 294 293 292 289 287 285 284 286 287 287 287 287 288 289 290 290 289 288 290 291 291 291 289 289 288 288 288 289 290 289 290 292 290 290
307 308 309 309 308 309 310 308 308 303 301 299 300 299 299 299 299 297 296 295 293 292 290 289 288 288 288 290 290 290 290 290 289 288 288 291 290 289 290 289 288 289 290 288 288 290 288 288 288 289 289 289 289 289
309 313 311 309 308 308 309 304 301 303 300 300 300 300 300 300 297 298 297 295 293 290 289 290 292 293 293 293 294 292 291 291 290 290 290 290 290 288 288 288 289 289 288 288 287 287 288 286 287 287 288 288 289 289
309 313 312 312 312 312 307 306 301 302 302 301 301 301 299 298 298 300 299 297 293 293 295 294 294 295 295 294 294 294 297 295 292 292 292 290 287 287 287 287 288 289 288 288 288 288 287 287 287 288 289 288 290 290
311 312 313 315 309 298 298 305 302 303 300 300 300 298 299 300 302 306 298 298 299 302 300 298 299 298 296 298 297 297 298 294 291 288 288 287 287 287 287 287 287 289 288 288 288 288 287 289 290 289 289 289 289 288
312 311 308 307 301 296 303 302 304 300 300 298 297 297 297 300 303 301 298 297 299 302 300 300 300 301 298 298 296 297 296 294 289 287 287 287 287 286 286 286 286 287 288 288 289 288 289 289 290 290 290 290 289 289
300 299 300 291 301 300 301 301 300 300 297 298 296 297 299 304 298 297 295 297 300 300 299 301 304 299 295 294 294 293 293 293 292 291 288 287 286 286 285 285 286 286 287 288 287 289 290 290 290 290 290 289 289 289
294 303 297 303 303 301 301 298 299 298 299 299 300 303 301 298 297 296 297 298 300 301 303 302 300 296 293 291 289 289 291 292 290 287 287 287 287 287 285 285 286 286 287 287 288 290 291 291 291 291 291 291 290 290
294 299 301 305 304 303 301 301 301 299 299 297 299 299 296 293 295 298 300 301 301 302 303 303 300 298 296 292 292 292 293 290 289 289 290 290 289 289 289 288 287 287 289 290 290 291 290 290 289 289 289 289 289 290
306 305 302 303 303 302 300 299 299 298 299 301 299 298 296 296 295 300 301 303 304 303 301 301 300 296 292 291 292 292 292 292 292 294 293 293 292 291 290 289 290 291 291 291 290 291 291 290 290 290 290 289 288 290
304 305 305 302 303 302 302 300 300 302 304 302 300 298 299 302 304 303 302 303 303 299 294 294 293 295 295 293 293 292 291 292 291 289 287 286 286 289 290 290 292 293 291 292 292 291 292 292 292 291 292 290 289 289
303 306 303 303 303 302 303 305 303 304 304 305 304 303 303 301 302 304 301 294 293 291 290 291 290 290 289 289 288 288 289 289 288 287 285 285 286 288 292 294 293 291 294 293 291 290 292 292 292 291 290 290 288 289
304 304 303 303 302 303 305 306 305 306 305 305 305 300 300 300 302 300 295 292 292 291 291 289 289 288 288 287 286 285 284 286 286 288 287 287 289 289 290 290 291 292 291 290 289 288 289 288 289 290 289 289 289 290
304 303 301 299 300 304 306 304 303 302 303 301 300 304 305 301 295 295 296 293 291 290 292 290 289 287 287 287 287 286 287 285 286 286 286 286 286 287 287 287 287 288 289 288 288 288 288 288 287 287 287 288 287 287
304 303 304 303 300 300 303 305 301 301 300 300 300 302 304 299 293 293 295 294 292 291 290 289 288 288 288 288 287 287 287 287 288 289 289 289 288 287 285 286 287 288 287 287 287 287 288 288 287 287 287 287 287 287

GFSWCAN_sfc_thetae_060.txt.gz
Theta_e
311 311 310 311 311 311 311 310 310 310 311 311 312 313 313 313 313 306 302 305 301 295 296 298 299 296 295 293 288 290 287 289 289 285 284 282 284 285 285 287 285 285 283 285 285 286 286 296 298 292 295 298 297 297
310 310 310 311 310 310 310 310 309 310 311 312 312 313 313 313 313 309 303 309 307 299 296 298 300 303 302 300 295 294 289 292 292 287 287 287 285 286 286 282 291 285 287 285 286 286 294 297 297 297 299 298 298 298
310 310 310 310 310 310 310 309 309 310 311 312 312 313 313 313 313 308 302 306 302 296 292 292 294 299 302 304 304 293 295 298 294 294 290 288 286 287 282 285 288 290 292 286 288 292 295 297 300 302 301 301 302 301
309 310 310 310 310 309 309 309 309 310 311 312 312 312 312 313 314 308 301 300 296 292 287 292 301 298 302 300 302 302 300 301 297 291 288 288 286 290 286 287 288 291 292 288 289 294 297 298 300 301 302 303 303 303
309 309 309 309 309 309 309 309 309 310 311 312 312 312 312 312 313 307 307 301 299 297 291 290 295 299 300 298 298 298 296 292 292 289 288 286 290 287 290 289 287 295 292 289 289 295 295 296 300 302 301 301 303 303
309 309 309 309 309 308 308 308 309 310 310 312 312 313 313 312 311 306 299 299 301 298 295 290 294 293 297 298 296 296 295 293 292 289 288 290 292 289 285 285 292 296 299 299 295 299 300 301 302 303 302 303 304 304
308 308 309 309 309 308 308 308 309 310 310 311 311 311 312 311 307 303 298 301 304 298 291 295 294 297 301 295 293 294 294 293 292 291 288 289 289 290 287 284 293 297 299 299 300 300 298 300 299 303 304 304 306 306
308 308 309 309 308 308 308 308 309 310 310 311 311 310 310 309 306 300 303 306 303 295 292 288 293 298 301 296 293 292 289 290 292 292 292 289 290 289 285 292 296 297 300 299 298 300 299 300 301 301 303 303 301 303
308 308 309 309 309 309 308 308 309 310 311 311 311 311 305 302 298 300 309 307 300 296 293 294 284 291 297 296 294 290 289 287 289 289 290 289 286 285 288 293 295 297 298 298 299 299 299 298 298 298 299 299 300 302
308 308 308 309 309 309 308 308 308 310 310 310 304 302 299 301 311 307 299 299 299 298 296 292 296 292 296 296 296 295 295 288 287 290 293 288 285 293 295 295 297 298 299 298 297 295 297 297 297 298 297 298 298 298
308 308 308 309 308 308 308 308 309 310 307 301 300 301 301 309 300 301 299 294 293 290 294 294 297 293 298 292 295 297 293 291 284 289 288 280 286 291 295 295 297 299 301 299 298 301 300 299 297 298 298 298 298 298
308 308 308 307 307 307 307 307 309 304 302 303 302 303 300 298 297 291 289 291 289 290 293 294 295 296 296 295 294 294 290 287 282 289 282 276 289 292 293 295 296 297 300 300 300 299 298 299 299 299 299 298 298 298
307 307 308 307 307 307 309 310 309 308 306 303 302 299 296 294 286 286 283 287 287 290 292 291 291 296 298 295 296 295 287 284 288 281 281 285 289 292 292 294 295 296 300 300 299 300 300 299 299 298 297 298 299 299
307 307 308 307 307 307 309 310 310 309 302 301 301 288 291 288 290 289 290 289 292 291 292 290 291 294 294 295 289 287 287 286 281 272 276 286 289 292 293 294 294 293 295 299 299 299 299 299 298 299 300 300 299 298
307 307 307 307 308 310 310 310 310 305 304 301 297 287 291 294 293 293 293 291 293 291 291 292 291 290 288 288 287 286 284 279 278 278 284 289 291 292 293 292 292 291 293 297 299 299 299 299 298 297 298 299 299 299
307 307 308 309 309 309 309 309 307 306 306 303 298 294 293 291 292 292 291 291 291 291 291 290 288 288 286 286 285 285 282 277 282 285 289 290 291 292 291 292 293 291 292 293 297 299 299 299 298 297 298 297 297 298
307 304 309 308 308 308 309 307 309 308 305 298 296 296 294 293 294 293 292 293 292 291 288 288 285 284 287 284 284 284 281 284 286 287 288 289 291 292 291 290 292 292 292 294 296 298 298 299 299 298 296 296 297 298
300 306 308 308 307 306 308 307 307 305 300 299 297 300 296 296 294 294 294 293 291 290 289 288 288 284 284 284 283 285 286 287 287 287 288 289 290 289 290 289 291 292 292 291 291 291 292 296 294 293 293 295 296 292
303 305 307 308 307 303 306 308 306 300 301 299 298 298 297 297 297 295 297 294 292 292 291 289 287 284 285 286 288 288 287 287 288 289 289 290 290 289 290 290 291 291 290 289 289 288 289 290 290 290 291 290 290 291
307 309 309 309 308 307 307 306 306 301 300 299 298 297 297 297 296 300 299 299 295 293 291 289 288 289 290 291 291 290 289 289 289 288 289 290 291 289 289 288 289 289 289 289 289 290 289 290 289 290 290 290 291 291
309 311 310 307 306 307 306 303 300 301 299 298 298 298 299 299 298 299 298 294 292 293 292 292 293 295 294 293 292 291 292 291 290 290 290 290 291 288 288 289 289 289 289 289 288 288 289 289 289 289 290 291 291 292
307 312 310 310 310 309 306 306 300 299 299 300 300 299 297 297 298 299 300 296 294 294 296 298 299 297 297 296 296 295 298 296 292 292 293 291 288 288 288 288 289 290 290 290 289 289 289 289 289 290 291 291 291 292
311 310 311 312 307 297 298 304 300 301 298 299 300 297 297 298 302 305 300 299 298 300 300 298 298 300 298 300 298 297 298 296 293 288 288 288 287 287 288 288 288 289 289 289 289 290 291 290 291 291 291 291 292 292
310 309 306 305 300 296 302 299 301 299 298 297 295 294 297 299 304 299 296 297 298 299 298 299 303 302 300 297 296 295 296 296 294 291 291 288 287 288 287 287 287 288 289 289 289 289 290 291 291 291 292 292 292 291
298 298 298 290 299 298 299 300 299 298 295 297 295 296 296 300 294 294 293 296 297 298 299 299 301 298 296 295 294 294 296 293 290 290 289 288 288 288 287 288 288 287 289 290 290 291 292 293 293 292 292 291 291 291
292 301 295 300 301 299 299 296 297 297 297 296 297 298 296 294 293 293 295 297 298 299 300 300 299 298 296 291 290 291 293 292 290 290 288 288 289 289 287 288 291 291 291 289 291 292 292 292 292 292 292 292 290 292
293 299 299 302 302 302 299 299 300 297 296 296 297 297 295 292 292 295 298 299 300 301 301 300 299 298 296 294 292 293 292 291 291 290 289 291 292 292 293 294 289 290 291 292 293 293 292 292 291 291 291 291 292 293
303 303 300 301 301 300 298 298 298 297 298 300 300 297 297 296 296 299 300 302 303 301 297 293 291 291 290 289 290 290 289 290 291 292 292 290 290 291 292 292 293 292 294 292 292 293 292 292 292 292 292 291 292 292
302 305 304 301 300 300 300 299 300 301 302 300 299 298 299 302 304 302 302 301 296 293 291 290 290 290 290 290 289 289 288 290 292 290 288 286 287 290 292 295 297 297 294 294 292 293 294 293 294 293 293 292 292 291
300 304 301 301 301 300 302 303 302 303 303 303 303 302 301 300 303 301 294 292 291 289 289 289 288 288 287 287 286 287 287 287 288 289 287 286 288 290 293 294 293 295 296 293 292 293 292 293 293 294 293 291 291 291
302 302 301 302 300 301 303 304 304 304 304 303 302 300 297 299 298 294 293 290 290 290 289 288 288 288 287 286 286 285 285 287 287 289 289 289 290 291 292 292 293 293 292 292 291 291 291 291 292 292 291 291 291 291
303 302 301 298 299 303 304 302 302 301 301 300 300 303 303 299 293 294 294 291 290 290 291 289 289 288 287 287 287 287 287 287 287 288 288 288 288 289 289 289 290 291 291 290 290 290 291 290 290 290 289 290 290 290
304 303 303 301 299 300 302 301 300 299 299 299 299 303 303 298 293 293 294 293 292 290 289 289 288 287 288 288 288 288 288 288 289 289 289 288 288 288 288 289 290 290 290 290 290 290 290 290 289 289 289 289 289 289